Wetterdaten: Sonntag, 18.01.2015
Datum Zeit Temp. Aussen +5cm Feuchte Auss Luftdruck Regen Sonnenschein Regendauer Solar Windben
18.01.2015 00:00 1,7 C 0,6 C 85 % 1015,4 hPa 0,0 l/m 0 min 0 min 0 W/m 14,6 km/h (3 Bft)
18.01.2015 00:02 1,7 C 0,6 C 85 % 1015,5 hPa 0,0 l/m 0 min 0 min 0 W/m 20,9 km/h (4 Bft)
18.01.2015 00:06 1,8 C 1,1 C 85 % 1015,4 hPa 0,0 l/m 0 min 0 min 0 W/m 14,6 km/h (3 Bft)
18.01.2015 00:08 1,8 C 1,1 C 84 % 1015,4 hPa 0,0 l/m 0 min 0 min 0 W/m 8,4 km/h (2 Bft)
18.01.2015 00:10 1,8 C 1,1 C 84 % 1015,5 hPa 0,0 l/m 0 min 0 min 0 W/m 16,7 km/h (3 Bft)
18.01.2015 00:12 1,8 C 1,1 C 84 % 1015,4 hPa 0,0 l/m 0 min 0 min 0 W/m 14,6 km/h (3 Bft)
18.01.2015 00:14 1,8 C 1,1 C 84 % 1015,4 hPa 0,0 l/m 0 min 0 min 0 W/m 12,6 km/h (3 Bft)
18.01.2015 00:16 1,8 C 0,6 C 84 % 1015,4 hPa 0,0 l/m 0 min 0 min 0 W/m 18,8 km/h (3 Bft)
18.01.2015 00:18 1,8 C 0,6 C 84 % 1015,4 hPa 0,0 l/m 0 min 0 min 0 W/m 12,6 km/h (3 Bft)
18.01.2015 00:20 1,8 C 0,6 C 84 % 1015,4 hPa 0,0 l/m 0 min 0 min 0 W/m 10,5 km/h (2 Bft)
18.01.2015 00:22 1,8 C 0,6 C 84 % 1015,4 hPa 0,0 l/m 0 min 0 min 0 W/m 25,1 km/h (4 Bft)
18.01.2015 00:24 1,8 C 0,6 C 84 % 1015,3 hPa 0,0 l/m 0 min 0 min 0 W/m 18,8 km/h (3 Bft)
18.01.2015 00:26 1,8 C 0,6 C 84 % 1015,3 hPa 0,0 l/m 0 min 0 min 0 W/m 12,6 km/h (3 Bft)
18.01.2015 00:28 1,8 C 0,6 C 84 % 1015,4 hPa 0,0 l/m 0 min 0 min 0 W/m 10,5 km/h (2 Bft)
18.01.2015 00:30 1,8 C 0,6 C 84 % 1015,4 hPa 0,0 l/m 0 min 0 min 0 W/m 12,6 km/h (3 Bft)
18.01.2015 00:32 1,8 C 0,6 C 84 % 1015,3 hPa 0,0 l/m 0 min 0 min 0 W/m 12,6 km/h (3 Bft)
18.01.2015 00:34 1,8 C 0,6 C 84 % 1015,3 hPa 0,0 l/m 0 min 0 min 0 W/m 14,6 km/h (3 Bft)
18.01.2015 00:36 1,8 C 0,6 C 84 % 1015,3 hPa 0,0 l/m 0 min 0 min 0 W/m 10,5 km/h (2 Bft)
18.01.2015 00:38 1,8 C 0,6 C 84 % 1015,3 hPa 0,0 l/m 0 min 0 min 0 W/m 10,5 km/h (2 Bft)
18.01.2015 00:40 1,8 C 0,6 C 84 % 1015,3 hPa 0,0 l/m 0 min 0 min 0 W/m 14,6 km/h (3 Bft)
18.01.2015 00:42 1,8 C 0,6 C 84 % 1015,2 hPa 0,0 l/m 0 min 0 min 0 W/m 12,6 km/h (3 Bft)
18.01.2015 00:44 1,7 C 0,6 C 84 % 1015,3 hPa 0,0 l/m 0 min 0 min 0 W/m 10,5 km/h (2 Bft)
18.01.2015 00:46 1,7 C 0,6 C 84 % 1015,3 hPa 0,0 l/m 0 min 0 min 0 W/m 12,6 km/h (3 Bft)
18.01.2015 00:48 1,7 C 0,6 C 84 % 1015,2 hPa 0,0 l/m 0 min 0 min 0 W/m 10,5 km/h (2 Bft)
18.01.2015 00:50 1,7 C 0,6 C 84 % 1015,2 hPa 0,0 l/m 0 min 0 min 0 W/m 14,6 km/h (3 Bft)
18.01.2015 00:52 1,7 C 0,6 C 84 % 1015,2 hPa 0,0 l/m 0 min 0 min 0 W/m 14,6 km/h (3 Bft)
18.01.2015 00:54 1,7 C 0,6 C 85 % 1015,1 hPa 0,0 l/m 0 min 0 min 0 W/m 14,6 km/h (3 Bft)
18.01.2015 00:56 1,7 C 0,6 C 85 % 1015,1 hPa 0,0 l/m 0 min 0 min 0 W/m 12,6 km/h (3 Bft)
18.01.2015 00:58 1,7 C 0,6 C 85 % 1015,1 hPa 0,0 l/m 0 min 0 min 0 W/m 16,7 km/h (3 Bft)
18.01.2015 01:00 1,7 C 0,6 C 85 % 1015,1 hPa 0,0 l/m 0 min 0 min 0 W/m 18,8 km/h (3 Bft)
18.01.2015 01:02 1,7 C 0,6 C 85 % 1015,1 hPa 0,0 l/m 0 min 0 min 0 W/m 14,6 km/h (3 Bft)
18.01.2015 01:04 1,7 C 0,6 C 85 % 1015,1 hPa 0,0 l/m 0 min 0 min 0 W/m 14,6 km/h (3 Bft)
18.01.2015 01:06 1,7 C 0,6 C 85 % 1015,2 hPa 0,0 l/m 0 min 0 min 0 W/m 14,6 km/h (3 Bft)
18.01.2015 01:08 1,7 C 0,6 C 85 % 1015,2 hPa 0,0 l/m 0 min 0 min 0 W/m 16,7 km/h (3 Bft)
18.01.2015 01:10 1,7 C 0,6 C 85 % 1015,1 hPa 0,0 l/m 0 min 0 min 0 W/m 14,6 km/h (3 Bft)
18.01.2015 01:12 1,7 C 0,6 C 85 % 1015,1 hPa 0,0 l/m 0 min 0 min 0 W/m 14,6 km/h (3 Bft)
18.01.2015 01:14 1,7 C 0,6 C 85 % 1015,1 hPa 0,0 l/m 0 min 0 min 0 W/m 10,5 km/h (2 Bft)
18.01.2015 01:16 1,7 C 1,1 C 85 % 1015,2 hPa 0,0 l/m 0 min 0 min 0 W/m 16,7 km/h (3 Bft)
18.01.2015 01:18 1,7 C 1,1 C 85 % 1015,1 hPa 0,0 l/m 0 min 0 min 0 W/m 16,7 km/h (3 Bft)
18.01.2015 01:20 1,7 C 1,1 C 85 % 1015,1 hPa 0,0 l/m 0 min 0 min 0 W/m 14,6 km/h (3 Bft)
18.01.2015 01:22 1,8 C 1,1 C 85 % 1015,1 hPa 0,0 l/m 0 min 0 min 0 W/m 10,5 km/h (2 Bft)
18.01.2015 01:24 1,8 C 0,6 C 84 % 1015,1 hPa 0,0 l/m 0 min 0 min 0 W/m 14,6 km/h (3 Bft)
18.01.2015 01:26 1,8 C 0,6 C 84 % 1015,1 hPa 0,0 l/m 0 min 0 min 0 W/m 23,0 km/h (4 Bft)
18.01.2015 01:28 1,8 C 0,6 C 84 % 1015,0 hPa 0,0 l/m 0 min 0 min 0 W/m 10,5 km/h (2 Bft)
18.01.2015 01:30 1,8 C 0,6 C 84 % 1015,0 hPa 0,0 l/m 0 min 0 min 0 W/m 12,6 km/h (3 Bft)
18.01.2015 01:32 1,8 C 0,6 C 84 % 1015,1 hPa 0,0 l/m 0 min 0 min 0 W/m 12,6 km/h (3 Bft)
18.01.2015 01:34 1,8 C 1,1 C 84 % 1015,0 hPa 0,0 l/m 0 min 0 min 0 W/m 10,5 km/h (2 Bft)
18.01.2015 01:36 1,8 C 1,1 C 84 % 1015,0 hPa 0,0 l/m 0 min 0 min 0 W/m 14,6 km/h (3 Bft)
18.01.2015 01:38 1,8 C 0,6 C 84 % 1015,0 hPa 0,0 l/m 0 min 0 min 0 W/m 8,4 km/h (2 Bft)
18.01.2015 01:40 1,8 C 0,6 C 84 % 1015,0 hPa 0,0 l/m 0 min 0 min 0 W/m 12,6 km/h (3 Bft)
18.01.2015 01:42 1,8 C 0,6 C 84 % 1015,0 hPa 0,0 l/m 0 min 0 min 0 W/m 12,6 km/h (3 Bft)
18.01.2015 01:44 1,8 C 1,1 C 84 % 1014,9 hPa 0,0 l/m 0 min 0 min 0 W/m 16,7 km/h (3 Bft)
18.01.2015 01:46 1,8 C 1,1 C 84 % 1014,9 hPa 0,0 l/m 0 min 0 min 0 W/m 20,9 km/h (4 Bft)
18.01.2015 01:48 1,8 C 1,1 C 84 % 1014,9 hPa 0,0 l/m 0 min 0 min 0 W/m 12,6 km/h (3 Bft)
18.01.2015 01:50 1,9 C 1,1 C 84 % 1014,9 hPa 0,0 l/m 0 min 0 min 0 W/m 14,6 km/h (3 Bft)
18.01.2015 01:52 1,9 C 1,1 C 84 % 1014,9 hPa 0,0 l/m 0 min 0 min 0 W/m 14,6 km/h (3 Bft)
18.01.2015 01:54 1,9 C 0,6 C 84 % 1014,8 hPa 0,0 l/m 0 min 0 min 0 W/m 8,4 km/h (2 Bft)
18.01.2015 01:56 1,9 C 0,6 C 84 % 1014,8 hPa 0,0 l/m 0 min 0 min 0 W/m 14,6 km/h (3 Bft)
18.01.2015 01:58 1,9 C 0,6 C 84 % 1014,9 hPa 0,0 l/m 0 min 0 min 0 W/m 8,4 km/h (2 Bft)
18.01.2015 02:00 1,9 C 0,6 C 84 % 1014,8 hPa 0,0 l/m 0 min 0 min 0 W/m 16,7 km/h (3 Bft)
18.01.2015 02:02 1,9 C 0,6 C 84 % 1014,8 hPa 0,0 l/m 0 min 0 min 0 W/m 14,6 km/h (3 Bft)
18.01.2015 02:04 1,9 C 0,6 C 84 % 1014,8 hPa 0,0 l/m 0 min 0 min 0 W/m 10,5 km/h (2 Bft)
18.01.2015 02:06 1,9 C 0,6 C 84 % 1014,9 hPa 0,0 l/m 0 min 0 min 0 W/m 12,6 km/h (3 Bft)
18.01.2015 02:08 1,8 C 0,6 C 84 % 1014,8 hPa 0,0 l/m 0 min 0 min 0 W/m 12,6 km/h (3 Bft)
18.01.2015 02:10 1,8 C 0,6 C 84 % 1014,8 hPa 0,0 l/m 0 min 0 min 0 W/m 8,4 km/h (2 Bft)
18.01.2015 02:12 1,8 C 0,6 C 84 % 1014,8 hPa 0,0 l/m 0 min 0 min 0 W/m 10,5 km/h (2 Bft)
18.01.2015 02:14 1,8 C 0,6 C 84 % 1014,9 hPa 0,0 l/m 0 min 0 min 0 W/m 10,5 km/h (2 Bft)
18.01.2015 02:16 1,8 C 0,6 C 84 % 1014,9 hPa 0,0 l/m 0 min 0 min 0 W/m 10,5 km/h (2 Bft)
18.01.2015 02:18 1,8 C 0,6 C 84 % 1014,8 hPa 0,0 l/m 0 min 0 min 0 W/m 10,5 km/h (2 Bft)
18.01.2015 02:20 1,8 C 0,6 C 84 % 1014,8 hPa 0,0 l/m 0 min 0 min 0 W/m 8,4 km/h (2 Bft)
18.01.2015 02:22 1,8 C 0,6 C 84 % 1014,7 hPa 0,0 l/m 0 min 0 min 0 W/m 10,5 km/h (2 Bft)
18.01.2015 02:24 1,7 C 0,6 C 84 % 1014,7 hPa 0,0 l/m 0 min 0 min 0 W/m 14,6 km/h (3 Bft)
18.01.2015 02:26 1,7 C 0,6 C 84 % 1014,8 hPa 0,0 l/m 0 min 0 min 0 W/m 8,4 km/h (2 Bft)
18.01.2015 02:28 1,7 C 0,6 C 84 % 1014,7 hPa 0,0 l/m 0 min 0 min 0 W/m 12,6 km/h (3 Bft)
18.01.2015 02:30 1,7 C 0,6 C 84 % 1014,7 hPa 0,0 l/m 0 min 0 min 0 W/m 12,6 km/h (3 Bft)
18.01.2015 02:32 1,7 C 0,6 C 84 % 1014,7 hPa 0,0 l/m 0 min 0 min 0 W/m 12,6 km/h (3 Bft)
18.01.2015 02:34 1,7 C 0,6 C 84 % 1014,7 hPa 0,0 l/m 0 min 0 min 0 W/m 10,5 km/h (2 Bft)
18.01.2015 02:36 1,7 C 0,6 C 84 % 1014,6 hPa 0,0 l/m 0 min 0 min 0 W/m 10,5 km/h (2 Bft)
18.01.2015 02:38 1,7 C 0,6 C 84 % 1014,7 hPa 0,0 l/m 0 min 0 min 0 W/m 12,6 km/h (3 Bft)
18.01.2015 02:40 1,7 C 0,6 C 84 % 1014,7 hPa 0,0 l/m 0 min 0 min 0 W/m 14,6 km/h (3 Bft)
18.01.2015 02:42 1,7 C 0,6 C 84 % 1014,7 hPa 0,0 l/m 0 min 0 min 0 W/m 14,6 km/h (3 Bft)
18.01.2015 02:44 1,7 C 0,6 C 84 % 1014,7 hPa 0,0 l/m 0 min 0 min 0 W/m 16,7 km/h (3 Bft)
18.01.2015 02:46 1,7 C 0,6 C 84 % 1014,6 hPa 0,0 l/m 0 min 0 min 0 W/m 14,6 km/h (3 Bft)
18.01.2015 02:48 1,7 C 0,6 C 84 % 1014,7 hPa 0,0 l/m 0 min 0 min 0 W/m 12,6 km/h (3 Bft)
18.01.2015 02:50 1,7 C 0,6 C 84 % 1014,6 hPa 0,0 l/m 0 min 0 min 0 W/m 10,5 km/h (2 Bft)
18.01.2015 02:52 1,7 C 0,6 C 84 % 1014,7 hPa 0,0 l/m 0 min 0 min 0 W/m 20,9 km/h (4 Bft)
18.01.2015 02:54 1,7 C 0,6 C 84 % 1014,6 hPa 0,0 l/m 0 min 0 min 0 W/m 16,7 km/h (3 Bft)
18.01.2015 02:56 1,7 C 0,6 C 84 % 1014,6 hPa 0,0 l/m 0 min 0 min 0 W/m 12,6 km/h (3 Bft)
18.01.2015 02:58 1,7 C 0,6 C 84 % 1014,5 hPa 0,0 l/m 0 min 0 min 0 W/m 12,6 km/h (3 Bft)
18.01.2015 03:00 1,7 C 0,6 C 84 % 1014,5 hPa 0,0 l/m 0 min 0 min 0 W/m 14,6 km/h (3 Bft)
18.01.2015 03:02 1,7 C 0,6 C 84 % 1014,5 hPa 0,0 l/m 0 min 0 min 0 W/m 14,6 km/h (3 Bft)
18.01.2015 03:04 1,7 C 0,6 C 84 % 1014,5 hPa 0,0 l/m 0 min 0 min 0 W/m 14,6 km/h (3 Bft)
18.01.2015 03:06 1,7 C 0,6 C 84 % 1014,4 hPa 0,0 l/m 0 min 0 min 0 W/m 10,5 km/h (2 Bft)
18.01.2015 03:08 1,7 C 0,6 C 84 % 1014,5 hPa 0,0 l/m 0 min 0 min 0 W/m 14,6 km/h (3 Bft)
18.01.2015 03:10 1,7 C 0,6 C 84 % 1014,5 hPa 0,0 l/m 0 min 0 min 0 W/m 14,6 km/h (3 Bft)
18.01.2015 03:12 1,7 C 0,6 C 84 % 1014,4 hPa 0,0 l/m 0 min 0 min 0 W/m 10,5 km/h (2 Bft)
18.01.2015 03:14 1,7 C 0,6 C 84 % 1014,4 hPa 0,0 l/m 0 min 0 min 0 W/m 10,5 km/h (2 Bft)
18.01.2015 03:16 1,7 C 0,6 C 84 % 1014,3 hPa 0,0 l/m 0 min 0 min 0 W/m 12,6 km/h (3 Bft)
18.01.2015 03:18 1,7 C 0,6 C 84 % 1014,4 hPa 0,0 l/m 0 min 0 min 0 W/m 10,5 km/h (2 Bft)
18.01.2015 03:20 1,7 C 0,6 C 84 % 1014,4 hPa 0,0 l/m 0 min 0 min 0 W/m 12,6 km/h (3 Bft)
18.01.2015 03:22 1,7 C 0,6 C 84 % 1014,4 hPa 0,0 l/m 0 min 0 min 0 W/m 14,6 km/h (3 Bft)
18.01.2015 03:24 1,7 C 0,6 C 84 % 1014,3 hPa 0,0 l/m 0 min 0 min 0 W/m 12,6 km/h (3 Bft)
18.01.2015 03:26 1,7 C 0,6 C 84 % 1014,4 hPa 0,0 l/m 0 min 0 min 0 W/m 10,5 km/h (2 Bft)
18.01.2015 03:28 1,6 C 0,6 C 84 % 1014,3 hPa 0,0 l/m 0 min 0 min 0 W/m 10,5 km/h (2 Bft)
18.01.2015 03:30 1,6 C 0,6 C 84 % 1014,3 hPa 0,0 l/m 0 min 0 min 0 W/m 10,5 km/h (2 Bft)
18.01.2015 03:32 1,6 C 0,6 C 84 % 1014,4 hPa 0,0 l/m 0 min 0 min 0 W/m 14,6 km/h (3 Bft)
18.01.2015 03:34 1,6 C 0,6 C 84 % 1014,4 hPa 0,0 l/m 0 min 0 min 0 W/m 12,6 km/h (3 Bft)
18.01.2015 03:36 1,6 C 0,6 C 84 % 1014,4 hPa 0,0 l/m 0 min 0 min 0 W/m 14,6 km/h (3 Bft)
18.01.2015 03:38 1,6 C 0,6 C 84 % 1014,3 hPa 0,0 l/m 0 min 0 min 0 W/m 12,6 km/h (3 Bft)
18.01.2015 03:40 1,6 C 0,6 C 84 % 1014,4 hPa 0,0 l/m 0 min 0 min 0 W/m 12,6 km/h (3 Bft)
18.01.2015 03:42 1,6 C 0,6 C 84 % 1014,4 hPa 0,0 l/m 0 min 0 min 0 W/m 8,4 km/h (2 Bft)
18.01.2015 03:44 1,6 C 0,6 C 84 % 1014,3 hPa 0,0 l/m 0 min 0 min 0 W/m 10,5 km/h (2 Bft)
18.01.2015 03:46 1,6 C 0,6 C 84 % 1014,3 hPa 0,0 l/m 0 min 0 min 0 W/m 8,4 km/h (2 Bft)
18.01.2015 03:48 1,6 C 0,6 C 84 % 1014,3 hPa 0,0 l/m 0 min 0 min 0 W/m 10,5 km/h (2 Bft)
18.01.2015 03:50 1,5 C 0,6 C 84 % 1014,3 hPa 0,0 l/m 0 min 0 min 0 W/m 10,5 km/h (2 Bft)
18.01.2015 03:52 1,5 C 0,6 C 84 % 1014,3 hPa 0,0 l/m 0 min 0 min 0 W/m 12,6 km/h (3 Bft)
18.01.2015 03:54 1,5 C 0,6 C 84 % 1014,2 hPa 0,0 l/m 0 min 0 min 0 W/m 10,5 km/h (2 Bft)
18.01.2015 03:56 1,5 C 0,6 C 84 % 1014,3 hPa 0,0 l/m 0 min 0 min 0 W/m 8,4 km/h (2 Bft)
18.01.2015 03:58 1,5 C 0,6 C 84 % 1014,3 hPa 0,0 l/m 0 min 0 min 0 W/m 12,6 km/h (3 Bft)
18.01.2015 04:00 1,5 C 0,6 C 84 % 1014,3 hPa 0,0 l/m 0 min 0 min 0 W/m 10,5 km/h (2 Bft)
18.01.2015 04:02 1,5 C 0,6 C 84 % 1014,3 hPa 0,0 l/m 0 min 0 min 0 W/m 8,4 km/h (2 Bft)
18.01.2015 04:04 1,5 C 0,6 C 84 % 1014,3 hPa 0,0 l/m 0 min 0 min 0 W/m 10,5 km/h (2 Bft)
18.01.2015 04:06 1,4 C 0,6 C 84 % 1014,2 hPa 0,0 l/m 0 min 0 min 0 W/m 12,6 km/h (3 Bft)
18.01.2015 04:08 1,4 C 0,6 C 84 % 1014,1 hPa 0,0 l/m 0 min 0 min 0 W/m 8,4 km/h (2 Bft)
18.01.2015 04:10 1,4 C 0,6 C 84 % 1014,1 hPa 0,0 l/m 0 min 0 min 0 W/m 10,5 km/h (2 Bft)
18.01.2015 04:12 1,4 C 0,6 C 84 % 1014,1 hPa 0,0 l/m 0 min 0 min 0 W/m 8,4 km/h (2 Bft)
18.01.2015 04:14 1,4 C 0,6 C 84 % 1014,1 hPa 0,0 l/m 0 min 0 min 0 W/m 10,5 km/h (2 Bft)
18.01.2015 04:16 1,4 C 0,6 C 84 % 1014,1 hPa 0,0 l/m 0 min 0 min 0 W/m 8,4 km/h (2 Bft)
18.01.2015 04:18 1,4 C 0,6 C 85 % 1014,2 hPa 0,0 l/m 0 min 0 min 0 W/m 8,4 km/h (2 Bft)
18.01.2015 04:20 1,4 C 0,6 C 85 % 1014,2 hPa 0,0 l/m 0 min 0 min 0 W/m 10,5 km/h (2 Bft)
18.01.2015 04:22 1,4 C 0,6 C 85 % 1014,2 hPa 0,0 l/m 0 min 0 min 0 W/m 8,4 km/h (2 Bft)
18.01.2015 04:24 1,4 C 0,6 C 85 % 1014,2 hPa 0,0 l/m 0 min 0 min 0 W/m 10,5 km/h (2 Bft)
18.01.2015 04:26 1,4 C 0,6 C 85 % 1014,1 hPa 0,0 l/m 0 min 0 min 0 W/m 8,4 km/h (2 Bft)
18.01.2015 04:28 1,4 C 0,6 C 85 % 1014,2 hPa 0,0 l/m 0 min 0 min 0 W/m 6,3 km/h (2 Bft)
18.01.2015 04:30 1,4 C 0,6 C 85 % 1014,1 hPa 0,0 l/m 0 min 0 min 0 W/m 10,5 km/h (2 Bft)
18.01.2015 04:32 1,4 C 0,6 C 85 % 1014,2 hPa 0,0 l/m 0 min 0 min 0 W/m 10,5 km/h (2 Bft)
18.01.2015 04:34 1,4 C 0,6 C 85 % 1014,1 hPa 0,0 l/m 0 min 0 min 0 W/m 8,4 km/h (2 Bft)
18.01.2015 04:36 1,4 C 0,6 C 85 % 1014,1 hPa 0,0 l/m 0 min 0 min 0 W/m 23,0 km/h (4 Bft)
18.01.2015 04:38 1,4 C 0,6 C 85 % 1014,1 hPa 0,0 l/m 0 min 0 min 0 W/m 14,6 km/h (3 Bft)
18.01.2015 04:40 1,4 C 0,6 C 85 % 1014,1 hPa 0,0 l/m 0 min 0 min 0 W/m 12,6 km/h (3 Bft)
18.01.2015 04:42 1,5 C 1,1 C 85 % 1014,1 hPa 0,0 l/m 0 min 0 min 0 W/m 10,5 km/h (2 Bft)
18.01.2015 04:44 1,5 C 1,1 C 85 % 1014,0 hPa 0,0 l/m 0 min 0 min 0 W/m 12,6 km/h (3 Bft)
18.01.2015 04:46 1,5 C 1,1 C 85 % 1014,0 hPa 0,0 l/m 0 min 0 min 0 W/m 16,7 km/h (3 Bft)
18.01.2015 04:48 1,6 C 1,1 C 85 % 1014,0 hPa 0,0 l/m 0 min 0 min 0 W/m 14,6 km/h (3 Bft)
18.01.2015 04:50 1,6 C 1,1 C 85 % 1013,9 hPa 0,0 l/m 0 min 0 min 0 W/m 14,6 km/h (3 Bft)
18.01.2015 04:52 1,6 C 1,1 C 85 % 1013,9 hPa 0,0 l/m 0 min 0 min 0 W/m 14,6 km/h (3 Bft)
18.01.2015 04:54 1,6 C 1,1 C 85 % 1013,9 hPa 0,0 l/m 0 min 0 min 0 W/m 14,6 km/h (3 Bft)
18.01.2015 04:56 1,6 C 1,1 C 85 % 1013,8 hPa 0,0 l/m 0 min 0 min 0 W/m 16,7 km/h (3 Bft)
18.01.2015 04:58 1,6 C 1,1 C 84 % 1013,8 hPa 0,0 l/m 0 min 0 min 0 W/m 14,6 km/h (3 Bft)
18.01.2015 05:00 1,7 C 1,1 C 84 % 1013,7 hPa 0,0 l/m 0 min 0 min 0 W/m 20,9 km/h (4 Bft)
18.01.2015 05:02 1,7 C 1,1 C 84 % 1013,7 hPa 0,0 l/m 0 min 0 min 0 W/m 23,0 km/h (4 Bft)
18.01.2015 05:04 1,7 C 1,1 C 84 % 1013,7 hPa 0,0 l/m 0 min 0 min 0 W/m 23,0 km/h (4 Bft)
18.01.2015 05:06 1,7 C 1,1 C 84 % 1013,7 hPa 0,0 l/m 0 min 0 min 0 W/m 18,8 km/h (3 Bft)
18.01.2015 05:08 1,8 C 1,1 C 84 % 1013,7 hPa 0,0 l/m 0 min 0 min 0 W/m 12,6 km/h (3 Bft)
18.01.2015 05:10 1,8 C 1,1 C 84 % 1013,7 hPa 0,0 l/m 0 min 0 min 0 W/m 12,6 km/h (3 Bft)
18.01.2015 05:12 1,8 C 1,1 C 84 % 1013,7 hPa 0,0 l/m 0 min 0 min 0 W/m 14,6 km/h (3 Bft)
18.01.2015 05:14 1,8 C 1,1 C 84 % 1013,6 hPa 0,0 l/m 0 min 0 min 0 W/m 8,4 km/h (2 Bft)
18.01.2015 05:16 1,9 C 1,1 C 84 % 1013,7 hPa 0,0 l/m 0 min 0 min 0 W/m 10,5 km/h (2 Bft)
18.01.2015 05:18 1,9 C 1,1 C 84 % 1013,7 hPa 0,0 l/m 0 min 0 min 0 W/m 14,6 km/h (3 Bft)
18.01.2015 05:20 1,9 C 1,1 C 84 % 1013,6 hPa 0,0 l/m 0 min 0 min 0 W/m 10,5 km/h (2 Bft)
18.01.2015 05:22 1,9 C 1,1 C 84 % 1013,6 hPa 0,0 l/m 0 min 0 min 0 W/m 14,6 km/h (3 Bft)
18.01.2015 05:24 1,9 C 1,1 C 84 % 1013,6 hPa 0,0 l/m 0 min 0 min 0 W/m 18,8 km/h (3 Bft)
18.01.2015 05:26 1,9 C 1,1 C 84 % 1013,7 hPa 0,0 l/m 0 min 0 min 0 W/m 18,8 km/h (3 Bft)
18.01.2015 05:28 1,9 C 1,1 C 83 % 1013,6 hPa 0,0 l/m 0 min 0 min 0 W/m 12,6 km/h (3 Bft)
18.01.2015 05:30 1,9 C 1,1 C 83 % 1013,6 hPa 0,0 l/m 0 min 0 min 0 W/m 16,7 km/h (3 Bft)
18.01.2015 05:32 1,9 C 1,1 C 83 % 1013,6 hPa 0,0 l/m 0 min 0 min 0 W/m 20,9 km/h (4 Bft)
18.01.2015 05:34 2,0 C 1,1 C 83 % 1013,6 hPa 0,0 l/m 0 min 0 min 0 W/m 16,7 km/h (3 Bft)
18.01.2015 05:36 2,0 C 1,1 C 83 % 1013,6 hPa 0,0 l/m 0 min 0 min 0 W/m 10,5 km/h (2 Bft)
18.01.2015 05:38 2,0 C 1,1 C 83 % 1013,6 hPa 0,0 l/m 0 min 0 min 0 W/m 12,6 km/h (3 Bft)
18.01.2015 05:40 2,0 C 1,1 C 83 % 1013,6 hPa 0,0 l/m 0 min 0 min 0 W/m 14,6 km/h (3 Bft)
18.01.2015 05:42 2,0 C 1,1 C 83 % 1013,5 hPa 0,0 l/m 0 min 0 min 0 W/m 14,6 km/h (3 Bft)
18.01.2015 05:44 2,0 C 1,1 C 83 % 1013,5 hPa 0,0 l/m 0 min 0 min 0 W/m 14,6 km/h (3 Bft)
18.01.2015 05:46 2,1 C 1,1 C 83 % 1013,6 hPa 0,0 l/m 0 min 0 min 0 W/m 18,8 km/h (3 Bft)
18.01.2015 05:48 2,1 C 1,1 C 83 % 1013,6 hPa 0,0 l/m 0 min 0 min 0 W/m 16,7 km/h (3 Bft)
18.01.2015 05:50 2,1 C 1,1 C 83 % 1013,6 hPa 0,0 l/m 0 min 0 min 0 W/m 12,6 km/h (3 Bft)
18.01.2015 05:52 2,1 C 1,1 C 83 % 1013,6 hPa 0,0 l/m 0 min 0 min 0 W/m 14,6 km/h (3 Bft)
18.01.2015 05:54 2,1 C 1,1 C 83 % 1013,6 hPa 0,0 l/m 0 min 0 min 0 W/m 18,8 km/h (3 Bft)
18.01.2015 05:56 2,1 C 1,1 C 83 % 1013,6 hPa 0,0 l/m 0 min 0 min 0 W/m 14,6 km/h (3 Bft)
18.01.2015 05:58 2,1 C 1,1 C 83 % 1013,6 hPa 0,0 l/m 0 min 0 min 0 W/m 14,6 km/h (3 Bft)
18.01.2015 06:00 2,1 C 1,1 C 83 % 1013,6 hPa 0,0 l/m 0 min 0 min 0 W/m 14,6 km/h (3 Bft)
18.01.2015 06:02 2,1 C 1,1 C 83 % 1013,5 hPa 0,0 l/m 0 min 0 min 0 W/m 16,7 km/h (3 Bft)
18.01.2015 06:06 2,1 C 1,1 C 83 % 1013,5 hPa 0,0 l/m 0 min 0 min 0 W/m 14,6 km/h (3 Bft)
18.01.2015 06:08 2,1 C 1,1 C 83 % 1013,6 hPa 0,0 l/m 0 min 0 min 0 W/m 10,5 km/h (2 Bft)
18.01.2015 06:10 2,1 C 1,1 C 83 % 1013,5 hPa 0,0 l/m 0 min 0 min 0 W/m 12,6 km/h (3 Bft)
18.01.2015 06:12 2,1 C 1,1 C 83 % 1013,5 hPa 0,0 l/m 0 min 0 min 0 W/m 8,4 km/h (2 Bft)
18.01.2015 06:14 2,1 C 1,1 C 83 % 1013,5 hPa 0,0 l/m 0 min 0 min 0 W/m 6,3 km/h (2 Bft)
18.01.2015 06:16 2,1 C 1,1 C 83 % 1013,5 hPa 0,0 l/m 0 min 0 min 0 W/m 6,3 km/h (2 Bft)
18.01.2015 06:18 2,1 C 1,1 C 83 % 1013,5 hPa 0,0 l/m 0 min 0 min 0 W/m 12,6 km/h (3 Bft)
18.01.2015 06:20 2,1 C 1,1 C 83 % 1013,5 hPa 0,0 l/m 0 min 0 min 0 W/m 12,6 km/h (3 Bft)
18.01.2015 06:22 2,1 C 1,1 C 83 % 1013,5 hPa 0,0 l/m 0 min 0 min 0 W/m 14,6 km/h (3 Bft)
18.01.2015 06:24 2,1 C 1,1 C 83 % 1013,5 hPa 0,0 l/m 0 min 0 min 0 W/m 10,5 km/h (2 Bft)
18.01.2015 06:26 2,1 C 1,1 C 83 % 1013,5 hPa 0,0 l/m 0 min 0 min 0 W/m 12,6 km/h (3 Bft)
18.01.2015 06:28 2,1 C 1,1 C 83 % 1013,5 hPa 0,0 l/m 0 min 0 min 0 W/m 8,4 km/h (2 Bft)
18.01.2015 06:30 2,1 C 1,1 C 83 % 1013,5 hPa 0,0 l/m 0 min 0 min 0 W/m 10,5 km/h (2 Bft)
18.01.2015 06:32 2,1 C 1,1 C 83 % 1013,5 hPa 0,0 l/m 0 min 0 min 0 W/m 12,6 km/h (3 Bft)
18.01.2015 06:34 2,1 C 1,1 C 83 % 1013,5 hPa 0,0 l/m 0 min 0 min 0 W/m 10,5 km/h (2 Bft)
18.01.2015 06:36 2,1 C 1,1 C 83 % 1013,5 hPa 0,0 l/m 0 min 0 min 0 W/m 10,5 km/h (2 Bft)
18.01.2015 06:38 2,1 C 1,1 C 83 % 1013,5 hPa 0,0 l/m 0 min 0 min 0 W/m 10,5 km/h (2 Bft)
18.01.2015 06:40 2,1 C 0,6 C 83 % 1013,5 hPa 0,0 l/m 0 min 0 min 0 W/m 8,4 km/h (2 Bft)
18.01.2015 06:42 2,1 C 0,6 C 83 % 1013,5 hPa 0,0 l/m 0 min 0 min 0 W/m 8,4 km/h (2 Bft)
18.01.2015 06:44 2,1 C 0,6 C 83 % 1013,5 hPa 0,0 l/m 0 min 0 min 0 W/m 10,5 km/h (2 Bft)
18.01.2015 06:46 2,1 C 0,6 C 84 % 1013,5 hPa 0,0 l/m 0 min 0 min 0 W/m 12,6 km/h (3 Bft)
18.01.2015 06:48 2,1 C 0,6 C 84 % 1013,5 hPa 0,0 l/m 0 min 0 min 0 W/m 10,5 km/h (2 Bft)
18.01.2015 06:50 2,0 C 0,6 C 84 % 1013,5 hPa 0,0 l/m 0 min 0 min 0 W/m 12,6 km/h (3 Bft)
18.01.2015 06:52 2,0 C 0,6 C 84 % 1013,5 hPa 0,0 l/m 0 min 0 min 0 W/m 16,7 km/h (3 Bft)
18.01.2015 06:54 2,0 C 0,6 C 84 % 1013,5 hPa 0,0 l/m 0 min 0 min 0 W/m 12,6 km/h (3 Bft)
18.01.2015 06:56 1,9 C 0,6 C 84 % 1013,5 hPa 0,0 l/m 0 min 0 min 0 W/m 6,3 km/h (2 Bft)
18.01.2015 06:58 1,9 C 0,6 C 84 % 1013,5 hPa 0,0 l/m 0 min 0 min 0 W/m 10,5 km/h (2 Bft)
18.01.2015 07:00 1,9 C 0,6 C 85 % 1013,4 hPa 0,0 l/m 0 min 0 min 0 W/m 14,6 km/h (3 Bft)
18.01.2015 07:02 1,9 C 0,6 C 85 % 1013,5 hPa 0,0 l/m 0 min 0 min 0 W/m 12,6 km/h (3 Bft)
18.01.2015 07:04 1,9 C 0,6 C 85 % 1013,5 hPa 0,0 l/m 0 min 0 min 0 W/m 10,5 km/h (2 Bft)
18.01.2015 07:06 1,9 C 0,6 C 85 % 1013,4 hPa 0,0 l/m 0 min 0 min 0 W/m 12,6 km/h (3 Bft)
18.01.2015 07:08 1,8 C 0,6 C 85 % 1013,5 hPa 0,0 l/m 0 min 0 min 0 W/m 12,6 km/h (3 Bft)
18.01.2015 07:10 1,8 C 0,6 C 85 % 1013,5 hPa 0,0 l/m 0 min 0 min 0 W/m 14,6 km/h (3 Bft)
18.01.2015 07:12 1,8 C 0,6 C 85 % 1013,4 hPa 0,0 l/m 0 min 0 min 0 W/m 14,6 km/h (3 Bft)
18.01.2015 07:14 1,8 C 0,6 C 85 % 1013,4 hPa 0,0 l/m 0 min 0 min 0 W/m 12,6 km/h (3 Bft)
18.01.2015 07:16 1,8 C 0,6 C 86 % 1013,4 hPa 0,0 l/m 0 min 0 min 0 W/m 16,7 km/h (3 Bft)
18.01.2015 07:18 1,8 C 0,6 C 86 % 1013,4 hPa 0,0 l/m 0 min 0 min 0 W/m 14,6 km/h (3 Bft)
18.01.2015 07:20 1,8 C 0,6 C 86 % 1013,3 hPa 0,0 l/m 0 min 0 min 0 W/m 16,7 km/h (3 Bft)
18.01.2015 07:22 1,8 C 0,6 C 86 % 1013,4 hPa 0,0 l/m 0 min 0 min 0 W/m 12,6 km/h (3 Bft)
18.01.2015 07:24 1,8 C 0,6 C 86 % 1013,4 hPa 0,0 l/m 0 min 0 min 0 W/m 12,6 km/h (3 Bft)
18.01.2015 07:26 1,8 C 0,6 C 86 % 1013,3 hPa 0,0 l/m 0 min 0 min 0 W/m 16,7 km/h (3 Bft)
18.01.2015 07:28 1,8 C 0,6 C 86 % 1013,4 hPa 0,0 l/m 0 min 0 min 0 W/m 18,8 km/h (3 Bft)
18.01.2015 07:30 1,8 C 0,6 C 86 % 1013,3 hPa 0,0 l/m 0 min 0 min 0 W/m 16,7 km/h (3 Bft)
18.01.2015 07:32 1,8 C 0,6 C 86 % 1013,3 hPa 0,0 l/m 0 min 0 min 0 W/m 8,4 km/h (2 Bft)
18.01.2015 07:34 1,8 C 0,6 C 86 % 1013,3 hPa 0,0 l/m 0 min 0 min 0 W/m 12,6 km/h (3 Bft)
18.01.2015 07:36 1,8 C 0,6 C 86 % 1013,3 hPa 0,0 l/m 0 min 0 min 0 W/m 16,7 km/h (3 Bft)
18.01.2015 07:38 1,8 C 1,1 C 86 % 1013,3 hPa 0,0 l/m 0 min 0 min 0 W/m 16,7 km/h (3 Bft)
18.01.2015 07:40 1,8 C 1,1 C 86 % 1013,3 hPa 0,0 l/m 0 min 0 min 0 W/m 14,6 km/h (3 Bft)
18.01.2015 07:42 1,8 C 1,1 C 86 % 1013,3 hPa 0,0 l/m 0 min 0 min 0 W/m 20,9 km/h (4 Bft)
18.01.2015 07:44 1,8 C 1,1 C 85 % 1013,3 hPa 0,0 l/m 0 min 0 min 0 W/m 12,6 km/h (3 Bft)
18.01.2015 07:46 1,8 C 1,1 C 85 % 1013,3 hPa 0,0 l/m 0 min 0 min 0 W/m 20,9 km/h (4 Bft)
18.01.2015 07:48 1,8 C 1,1 C 85 % 1013,3 hPa 0,0 l/m 0 min 0 min 0 W/m 18,8 km/h (3 Bft)
18.01.2015 07:50 1,8 C 1,1 C 85 % 1013,2 hPa 0,0 l/m 0 min 0 min 0 W/m 20,9 km/h (4 Bft)
18.01.2015 07:52 1,8 C 1,1 C 85 % 1013,4 hPa 0,0 l/m 0 min 0 min 0 W/m 16,7 km/h (3 Bft)
18.01.2015 07:54 1,8 C 1,1 C 85 % 1013,3 hPa 0,0 l/m 0 min 0 min 0 W/m 12,6 km/h (3 Bft)
18.01.2015 07:56 1,8 C 1,1 C 85 % 1013,2 hPa 0,0 l/m 0 min 0 min 0 W/m 23,0 km/h (4 Bft)
18.01.2015 07:58 1,9 C 1,1 C 85 % 1013,3 hPa 0,0 l/m 0 min 0 min 0 W/m 16,7 km/h (3 Bft)
18.01.2015 08:00 1,9 C 1,1 C 85 % 1013,2 hPa 0,0 l/m 0 min 0 min 0 W/m 16,7 km/h (3 Bft)
18.01.2015 08:02 1,9 C 1,1 C 85 % 1013,3 hPa 0,0 l/m 0 min 0 min 0 W/m 14,6 km/h (3 Bft)
18.01.2015 08:04 1,9 C 1,1 C 85 % 1013,3 hPa 0,0 l/m 0 min 0 min 0 W/m 16,7 km/h (3 Bft)
18.01.2015 08:06 1,9 C 1,1 C 85 % 1013,3 hPa 0,0 l/m 0 min 0 min 0 W/m 14,6 km/h (3 Bft)
18.01.2015 08:08 1,9 C 1,1 C 85 % 1013,3 hPa 0,0 l/m 0 min 0 min 0 W/m 18,8 km/h (3 Bft)
18.01.2015 08:10 1,9 C 1,1 C 85 % 1013,3 hPa 0,0 l/m 0 min 0 min 0 W/m 14,6 km/h (3 Bft)
18.01.2015 08:12 1,9 C 1,1 C 84 % 1013,4 hPa 0,0 l/m 0 min 0 min 0 W/m 20,9 km/h (4 Bft)
18.01.2015 08:14 1,9 C 1,1 C 84 % 1013,3 hPa 0,0 l/m 0 min 0 min 0 W/m 18,8 km/h (3 Bft)
18.01.2015 08:16 1,9 C 1,1 C 84 % 1013,3 hPa 0,0 l/m 0 min 0 min 0 W/m 16,7 km/h (3 Bft)
18.01.2015 08:18 1,9 C 1,1 C 84 % 1013,3 hPa 0,0 l/m 0 min 0 min 0 W/m 12,6 km/h (3 Bft)
18.01.2015 08:20 1,9 C 1,1 C 84 % 1013,3 hPa 0,0 l/m 0 min 0 min 0 W/m 16,7 km/h (3 Bft)
18.01.2015 08:22 1,9 C 1,1 C 84 % 1013,3 hPa 0,0 l/m 0 min 0 min 0 W/m 23,0 km/h (4 Bft)
18.01.2015 08:24 1,9 C 1,1 C 84 % 1013,4 hPa 0,0 l/m 0 min 0 min 0 W/m 14,6 km/h (3 Bft)
18.01.2015 08:26 2,0 C 1,1 C 84 % 1013,3 hPa 0,0 l/m 0 min 0 min 0 W/m 14,6 km/h (3 Bft)
18.01.2015 08:28 2,0 C 1,1 C 84 % 1013,4 hPa 0,0 l/m 0 min 0 min 0 W/m 16,7 km/h (3 Bft)
18.01.2015 08:30 2,0 C 1,1 C 84 % 1013,4 hPa 0,0 l/m 0 min 0 min 0 W/m 14,6 km/h (3 Bft)
18.01.2015 08:32 2,0 C 1,1 C 84 % 1013,4 hPa 0,0 l/m 0 min 0 min 0 W/m 14,6 km/h (3 Bft)
18.01.2015 08:34 2,0 C 1,1 C 84 % 1013,4 hPa 0,0 l/m 0 min 0 min 0 W/m 18,8 km/h (3 Bft)
18.01.2015 08:36 2,0 C 1,1 C 84 % 1013,4 hPa 0,0 l/m 0 min 0 min 0 W/m 12,6 km/h (3 Bft)
18.01.2015 08:38 2,0 C 1,1 C 84 % 1013,4 hPa 0,0 l/m 0 min 0 min 0 W/m 16,7 km/h (3 Bft)
18.01.2015 08:40 2,0 C 1,1 C 84 % 1013,4 hPa 0,0 l/m 0 min 0 min 0 W/m 18,8 km/h (3 Bft)
18.01.2015 08:42 2,0 C 1,1 C 84 % 1013,4 hPa 0,0 l/m 0 min 0 min 4 W/m 16,7 km/h (3 Bft)
18.01.2015 08:44 2,0 C 1,1 C 84 % 1013,4 hPa 0,0 l/m 0 min 0 min 5 W/m 18,8 km/h (3 Bft)
18.01.2015 08:46 2,0 C 1,1 C 84 % 1013,4 hPa 0,0 l/m 0 min 0 min 6 W/m 16,7 km/h (3 Bft)
18.01.2015 08:48 2,1 C 1,1 C 84 % 1013,4 hPa 0,0 l/m 0 min 0 min 8 W/m 12,6 km/h (3 Bft)
18.01.2015 08:50 2,1 C 1,1 C 84 % 1013,3 hPa 0,0 l/m 0 min 0 min 9 W/m 18,8 km/h (3 Bft)
18.01.2015 08:52 2,1 C 1,1 C 84 % 1013,3 hPa 0,0 l/m 0 min 0 min 10 W/m 18,8 km/h (3 Bft)
18.01.2015 08:54 2,1 C 1,1 C 84 % 1013,4 hPa 0,0 l/m 0 min 0 min 11 W/m 20,9 km/h (4 Bft)
18.01.2015 08:56 2,1 C 1,1 C 84 % 1013,3 hPa 0,0 l/m 0 min 0 min 11 W/m 23,0 km/h (4 Bft)
18.01.2015 08:58 2,1 C 1,1 C 84 % 1013,3 hPa 0,0 l/m 0 min 0 min 11 W/m 18,8 km/h (3 Bft)
18.01.2015 09:00 2,1 C 1,1 C 84 % 1013,4 hPa 0,0 l/m 0 min 0 min 11 W/m 18,8 km/h (3 Bft)
18.01.2015 09:02 2,1 C 1,1 C 84 % 1013,3 hPa 0,0 l/m 0 min 0 min 12 W/m 18,8 km/h (3 Bft)
18.01.2015 09:04 2,1 C 1,1 C 84 % 1013,3 hPa 0,0 l/m 0 min 0 min 14 W/m 18,8 km/h (3 Bft)
18.01.2015 09:06 2,1 C 1,1 C 84 % 1013,3 hPa 0,0 l/m 0 min 0 min 14 W/m 16,7 km/h (3 Bft)
18.01.2015 09:08 2,1 C 1,1 C 84 % 1013,4 hPa 0,0 l/m 0 min 0 min 15 W/m 16,7 km/h (3 Bft)
18.01.2015 09:10 2,1 C 1,1 C 84 % 1013,4 hPa 0,0 l/m 0 min 0 min 16 W/m 16,7 km/h (3 Bft)
18.01.2015 09:12 2,1 C 1,1 C 84 % 1013,4 hPa 0,0 l/m 0 min 0 min 17 W/m 16,7 km/h (3 Bft)
18.01.2015 09:14 2,1 C 1,1 C 84 % 1013,4 hPa 0,0 l/m 0 min 0 min 19 W/m 18,8 km/h (3 Bft)
18.01.2015 09:16 2,1 C 1,1 C 84 % 1013,4 hPa 0,0 l/m 0 min 0 min 21 W/m 20,9 km/h (4 Bft)
18.01.2015 09:18 2,2 C 1,1 C 84 % 1013,4 hPa 0,0 l/m 0 min 0 min 23 W/m 14,6 km/h (3 Bft)
18.01.2015 09:20 2,2 C 1,1 C 84 % 1013,3 hPa 0,0 l/m 0 min 0 min 25 W/m 16,7 km/h (3 Bft)
18.01.2015 09:22 2,2 C 1,1 C 84 % 1013,4 hPa 0,0 l/m 0 min 0 min 25 W/m 20,9 km/h (4 Bft)
18.01.2015 09:24 2,2 C 1,1 C 84 % 1013,3 hPa 0,0 l/m 0 min 0 min 27 W/m 20,9 km/h (4 Bft)
18.01.2015 09:26 2,2 C 1,7 C 84 % 1013,3 hPa 0,0 l/m 0 min 0 min 31 W/m 25,1 km/h (4 Bft)
18.01.2015 09:28 2,2 C 1,7 C 84 % 1013,3 hPa 0,0 l/m 0 min 0 min 35 W/m 16,7 km/h (3 Bft)
18.01.2015 09:30 2,2 C 1,7 C 84 % 1013,3 hPa 0,0 l/m 0 min 0 min 37 W/m 18,8 km/h (3 Bft)
18.01.2015 09:32 2,3 C 1,7 C 84 % 1013,2 hPa 0,0 l/m 0 min 0 min 39 W/m 18,8 km/h (3 Bft)
18.01.2015 09:34 2,3 C 1,7 C 84 % 1013,3 hPa 0,0 l/m 0 min 0 min 38 W/m 16,7 km/h (3 Bft)
18.01.2015 09:36 2,3 C 1,7 C 84 % 1013,3 hPa 0,0 l/m 0 min 0 min 34 W/m 25,1 km/h (4 Bft)
18.01.2015 09:38 2,3 C 1,7 C 84 % 1013,3 hPa 0,0 l/m 0 min 0 min 32 W/m 16,7 km/h (3 Bft)
18.01.2015 09:40 2,3 C 1,7 C 84 % 1013,2 hPa 0,0 l/m 0 min 0 min 30 W/m 23,0 km/h (4 Bft)
18.01.2015 09:42 2,3 C 1,7 C 84 % 1013,3 hPa 0,0 l/m 0 min 0 min 30 W/m 20,9 km/h (4 Bft)
18.01.2015 09:44 2,3 C 1,7 C 84 % 1013,3 hPa 0,0 l/m 0 min 0 min 33 W/m 20,9 km/h (4 Bft)
18.01.2015 09:46 2,4 C 1,7 C 84 % 1013,3 hPa 0,0 l/m 0 min 0 min 35 W/m 20,9 km/h (4 Bft)
18.01.2015 09:48 2,4 C 1,7 C 84 % 1013,3 hPa 0,0 l/m 0 min 0 min 39 W/m 27,2 km/h (4 Bft)
18.01.2015 09:50 2,4 C 1,7 C 84 % 1013,2 hPa 0,0 l/m 0 min 0 min 40 W/m 23,0 km/h (4 Bft)
18.01.2015 09:52 2,4 C 1,7 C 84 % 1013,3 hPa 0,0 l/m 0 min 0 min 40 W/m 18,8 km/h (3 Bft)
18.01.2015 09:54 2,4 C 1,7 C 84 % 1013,3 hPa 0,0 l/m 0 min 0 min 40 W/m 23,0 km/h (4 Bft)
18.01.2015 09:56 2,4 C 1,7 C 84 % 1013,3 hPa 0,0 l/m 0 min 0 min 47 W/m 23,0 km/h (4 Bft)
18.01.2015 09:58 2,5 C 1,7 C 84 % 1013,4 hPa 0,0 l/m 0 min 0 min 54 W/m 18,8 km/h (3 Bft)
18.01.2015 10:00 2,5 C 1,7 C 84 % 1013,3 hPa 0,0 l/m 0 min 0 min 57 W/m 18,8 km/h (3 Bft)
18.01.2015 10:02 2,5 C 2,2 C 84 % 1013,4 hPa 0,0 l/m 0 min 0 min 56 W/m 16,7 km/h (3 Bft)
18.01.2015 10:04 2,6 C 2,2 C 84 % 1013,3 hPa 0,0 l/m 0 min 0 min 56 W/m 18,8 km/h (3 Bft)
18.01.2015 10:06 2,6 C 2,2 C 84 % 1013,2 hPa 0,0 l/m 0 min 0 min 60 W/m 23,0 km/h (4 Bft)
18.01.2015 10:08 2,6 C 2,2 C 84 % 1013,3 hPa 0,0 l/m 0 min 0 min 63 W/m 25,1 km/h (4 Bft)
18.01.2015 10:10 2,6 C 2,2 C 84 % 1013,2 hPa 0,0 l/m 0 min 0 min 67 W/m 14,6 km/h (3 Bft)
18.01.2015 10:12 2,6 C 2,2 C 84 % 1013,2 hPa 0,0 l/m 0 min 0 min 69 W/m 25,1 km/h (4 Bft)
18.01.2015 10:14 2,7 C 2,2 C 84 % 1013,3 hPa 0,0 l/m 0 min 0 min 69 W/m 18,8 km/h (3 Bft)
18.01.2015 10:16 2,7 C 2,2 C 84 % 1013,3 hPa 0,0 l/m 0 min 0 min 69 W/m 20,9 km/h (4 Bft)
18.01.2015 10:18 2,7 C 2,2 C 84 % 1013,3 hPa 0,0 l/m 0 min 0 min 67 W/m 20,9 km/h (4 Bft)
18.01.2015 10:20 2,7 C 2,2 C 84 % 1013,3 hPa 0,0 l/m 0 min 0 min 67 W/m 16,7 km/h (3 Bft)
18.01.2015 10:22 2,7 C 2,2 C 84 % 1013,4 hPa 0,0 l/m 0 min 0 min 68 W/m 12,6 km/h (3 Bft)
18.01.2015 10:24 2,7 C 2,2 C 84 % 1013,3 hPa 0,0 l/m 0 min 0 min 67 W/m 14,6 km/h (3 Bft)
18.01.2015 10:26 2,8 C 2,2 C 84 % 1013,4 hPa 0,0 l/m 0 min 0 min 66 W/m 12,6 km/h (3 Bft)
18.01.2015 10:28 2,8 C 2,2 C 84 % 1013,4 hPa 0,0 l/m 0 min 0 min 66 W/m 12,6 km/h (3 Bft)
18.01.2015 10:30 2,8 C 2,2 C 84 % 1013,4 hPa 0,0 l/m 0 min 0 min 70 W/m 14,6 km/h (3 Bft)
18.01.2015 10:32 2,8 C 2,2 C 84 % 1013,4 hPa 0,0 l/m 0 min 0 min 73 W/m 14,6 km/h (3 Bft)
18.01.2015 10:34 2,8 C 2,2 C 84 % 1013,4 hPa 0,0 l/m 0 min 0 min 76 W/m 18,8 km/h (3 Bft)
18.01.2015 10:36 2,9 C 2,8 C 84 % 1013,4 hPa 0,0 l/m 0 min 0 min 77 W/m 20,9 km/h (4 Bft)
18.01.2015 10:38 2,9 C 2,8 C 84 % 1013,4 hPa 0,0 l/m 0 min 0 min 76 W/m 14,6 km/h (3 Bft)
18.01.2015 10:40 2,9 C 2,8 C 84 % 1013,4 hPa 0,0 l/m 0 min 0 min 75 W/m 14,6 km/h (3 Bft)
18.01.2015 10:42 2,9 C 2,8 C 84 % 1013,4 hPa 0,0 l/m 0 min 0 min 74 W/m 16,7 km/h (3 Bft)
18.01.2015 10:44 2,9 C 2,8 C 84 % 1013,5 hPa 0,0 l/m 0 min 0 min 74 W/m 14,6 km/h (3 Bft)
18.01.2015 10:46 2,9 C 2,8 C 83 % 1013,4 hPa 0,0 l/m 0 min 0 min 75 W/m 16,7 km/h (3 Bft)
18.01.2015 10:48 3,0 C 2,8 C 83 % 1013,4 hPa 0,0 l/m 0 min 0 min 76 W/m 18,8 km/h (3 Bft)
18.01.2015 10:50 3,0 C 2,8 C 83 % 1013,5 hPa 0,0 l/m 0 min 0 min 76 W/m 14,6 km/h (3 Bft)
18.01.2015 10:52 3,1 C 2,8 C 83 % 1013,4 hPa 0,0 l/m 0 min 0 min 76 W/m 14,6 km/h (3 Bft)
18.01.2015 10:54 3,1 C 2,8 C 83 % 1013,5 hPa 0,0 l/m 0 min 0 min 73 W/m 16,7 km/h (3 Bft)
18.01.2015 10:56 3,1 C 2,8 C 83 % 1013,4 hPa 0,0 l/m 0 min 0 min 71 W/m 14,6 km/h (3 Bft)
18.01.2015 10:58 3,1 C 2,8 C 83 % 1013,4 hPa 0,0 l/m 0 min 0 min 70 W/m 16,7 km/h (3 Bft)
18.01.2015 11:00 3,1 C 2,8 C 83 % 1013,4 hPa 0,0 l/m 0 min 0 min 69 W/m 18,8 km/h (3 Bft)
18.01.2015 11:02 3,2 C 2,8 C 83 % 1013,5 hPa 0,0 l/m 0 min 0 min 69 W/m 12,6 km/h (3 Bft)
18.01.2015 11:04 3,2 C 2,8 C 83 % 1013,4 hPa 0,0 l/m 0 min 0 min 71 W/m 16,7 km/h (3 Bft)
18.01.2015 11:06 3,2 C 2,8 C 83 % 1013,4 hPa 0,0 l/m 0 min 0 min 75 W/m 16,7 km/h (3 Bft)
18.01.2015 11:08 3,2 C 2,8 C 83 % 1013,4 hPa 0,0 l/m 0 min 0 min 77 W/m 20,9 km/h (4 Bft)
18.01.2015 11:10 3,3 C 2,8 C 83 % 1013,4 hPa 0,0 l/m 0 min 0 min 82 W/m 16,7 km/h (3 Bft)
18.01.2015 11:12 3,3 C 2,8 C 83 % 1013,4 hPa 0,0 l/m 0 min 0 min 86 W/m 14,6 km/h (3 Bft)
18.01.2015 11:14 3,3 C 2,8 C 83 % 1013,4 hPa 0,0 l/m 0 min 0 min 90 W/m 10,5 km/h (2 Bft)
18.01.2015 11:16 3,3 C 2,8 C 83 % 1013,5 hPa 0,0 l/m 0 min 0 min 91 W/m 12,6 km/h (3 Bft)
18.01.2015 11:18 3,3 C 2,8 C 83 % 1013,3 hPa 0,0 l/m 0 min 0 min 91 W/m 14,6 km/h (3 Bft)
18.01.2015 11:20 3,4 C 3,3 C 83 % 1013,3 hPa 0,0 l/m 0 min 0 min 94 W/m 25,1 km/h (4 Bft)
18.01.2015 11:22 3,4 C 3,3 C 83 % 1013,3 hPa 0,0 l/m 0 min 0 min 99 W/m 16,7 km/h (3 Bft)
18.01.2015 11:24 3,4 C 3,3 C 83 % 1013,4 hPa 0,0 l/m 0 min 0 min 105 W/m 16,7 km/h (3 Bft)
18.01.2015 11:26 3,4 C 3,3 C 82 % 1013,3 hPa 0,0 l/m 0 min 0 min 109 W/m 16,7 km/h (3 Bft)
18.01.2015 11:28 3,5 C 3,3 C 83 % 1013,3 hPa 0,0 l/m 0 min 0 min 112 W/m 16,7 km/h (3 Bft)
18.01.2015 11:30 3,5 C 3,3 C 82 % 1013,2 hPa 0,0 l/m 0 min 0 min 111 W/m 20,9 km/h (4 Bft)
18.01.2015 11:32 3,6 C 3,3 C 82 % 1013,2 hPa 0,0 l/m 0 min 0 min 101 W/m 10,5 km/h (2 Bft)
18.01.2015 11:34 3,6 C 3,3 C 82 % 1013,2 hPa 0,0 l/m 0 min 0 min 91 W/m 18,8 km/h (3 Bft)
18.01.2015 11:36 3,6 C 3,3 C 83 % 1013,2 hPa 0,0 l/m 0 min 0 min 97 W/m 12,6 km/h (3 Bft)
18.01.2015 11:38 3,7 C 3,3 C 83 % 1013,2 hPa 0,0 l/m 0 min 0 min 111 W/m 10,5 km/h (2 Bft)
18.01.2015 11:40 3,7 C 3,9 C 83 % 1013,2 hPa 0,0 l/m 0 min 0 min 116 W/m 16,7 km/h (3 Bft)
18.01.2015 11:42 3,7 C 3,9 C 83 % 1013,2 hPa 0,0 l/m 0 min 0 min 119 W/m 18,8 km/h (3 Bft)
18.01.2015 11:44 3,8 C 3,9 C 82 % 1013,2 hPa 0,0 l/m 0 min 0 min 127 W/m 18,8 km/h (3 Bft)
18.01.2015 11:46 3,8 C 3,9 C 82 % 1013,1 hPa 0,0 l/m 0 min 0 min 130 W/m 16,7 km/h (3 Bft)
18.01.2015 11:48 3,8 C 3,9 C 82 % 1013,2 hPa 0,0 l/m 0 min 0 min 139 W/m 16,7 km/h (3 Bft)
18.01.2015 11:50 3,9 C 3,9 C 82 % 1013,1 hPa 0,0 l/m 0 min 0 min 138 W/m 20,9 km/h (4 Bft)
18.01.2015 11:52 3,9 C 3,9 C 82 % 1013,1 hPa 0,0 l/m 0 min 0 min 129 W/m 16,7 km/h (3 Bft)
18.01.2015 11:54 3,9 C 3,9 C 82 % 1013,1 hPa 0,0 l/m 0 min 0 min 120 W/m 18,8 km/h (3 Bft)
18.01.2015 11:56 4,0 C 3,9 C 82 % 1013,2 hPa 0,0 l/m 0 min 0 min 117 W/m 12,6 km/h (3 Bft)
18.01.2015 11:58 4,1 C 3,9 C 82 % 1013,2 hPa 0,0 l/m 0 min 0 min 115 W/m 14,6 km/h (3 Bft)
18.01.2015 12:00 4,1 C 3,9 C 82 % 1013,1 hPa 0,0 l/m 0 min 0 min 112 W/m 12,6 km/h (3 Bft)
18.01.2015 12:02 4,1 C 3,9 C 81 % 1013,2 hPa 0,0 l/m 0 min 0 min 108 W/m 12,6 km/h (3 Bft)
18.01.2015 12:06 4,2 C 3,9 C 82 % 1013,2 hPa 0,0 l/m 0 min 0 min 110 W/m 14,6 km/h (3 Bft)
18.01.2015 12:08 4,2 C 3,9 C 81 % 1013,2 hPa 0,0 l/m 0 min 0 min 117 W/m 27,2 km/h (4 Bft)
18.01.2015 12:10 4,2 C 3,9 C 81 % 1013,2 hPa 0,0 l/m 0 min 0 min 128 W/m 20,9 km/h (4 Bft)
18.01.2015 12:12 4,2 C 3,9 C 81 % 1013,1 hPa 0,0 l/m 0 min 0 min 139 W/m 16,7 km/h (3 Bft)
18.01.2015 12:14 4,3 C 3,9 C 81 % 1013,1 hPa 0,0 l/m 0 min 0 min 150 W/m 14,6 km/h (3 Bft)
18.01.2015 12:16 4,3 C 4,4 C 81 % 1013,1 hPa 0,0 l/m 2 min 0 min 164 W/m 12,6 km/h (3 Bft)
18.01.2015 12:18 4,3 C 4,4 C 81 % 1013,1 hPa 0,0 l/m 2 min 0 min 174 W/m 14,6 km/h (3 Bft)
18.01.2015 12:20 4,4 C 4,4 C 81 % 1013,1 hPa 0,0 l/m 2 min 0 min 180 W/m 12,6 km/h (3 Bft)
18.01.2015 12:22 4,4 C 4,4 C 81 % 1013,1 hPa 0,0 l/m 2 min 0 min 178 W/m 12,6 km/h (3 Bft)
18.01.2015 12:24 4,5 C 4,4 C 81 % 1013,1 hPa 0,0 l/m 2 min 0 min 174 W/m 14,6 km/h (3 Bft)
18.01.2015 12:26 4,5 C 4,4 C 81 % 1013,1 hPa 0,0 l/m 2 min 0 min 164 W/m 16,7 km/h (3 Bft)
18.01.2015 12:28 4,6 C 4,4 C 81 % 1013,1 hPa 0,0 l/m 0 min 0 min 157 W/m 12,6 km/h (3 Bft)
18.01.2015 12:30 4,6 C 4,4 C 81 % 1013,1 hPa 0,0 l/m 0 min 0 min 151 W/m 14,6 km/h (3 Bft)
18.01.2015 12:32 4,7 C 4,4 C 80 % 1013,1 hPa 0,0 l/m 0 min 0 min 145 W/m 18,8 km/h (3 Bft)
18.01.2015 12:34 4,7 C 4,4 C 80 % 1013,0 hPa 0,0 l/m 0 min 0 min 140 W/m 18,8 km/h (3 Bft)
18.01.2015 12:36 4,7 C 4,4 C 80 % 1013,0 hPa 0,0 l/m 0 min 0 min 137 W/m 25,1 km/h (4 Bft)
18.01.2015 12:38 4,7 C 4,4 C 79 % 1013,0 hPa 0,0 l/m 0 min 0 min 137 W/m 16,7 km/h (3 Bft)
18.01.2015 12:40 4,7 C 4,4 C 79 % 1013,0 hPa 0,0 l/m 0 min 0 min 137 W/m 10,5 km/h (2 Bft)
18.01.2015 12:42 4,8 C 4,4 C 79 % 1013,0 hPa 0,0 l/m 0 min 0 min 137 W/m 14,6 km/h (3 Bft)
18.01.2015 12:44 4,8 C 4,4 C 79 % 1013,0 hPa 0,0 l/m 0 min 0 min 137 W/m 12,6 km/h (3 Bft)
18.01.2015 12:46 4,8 C 4,4 C 79 % 1013,0 hPa 0,0 l/m 0 min 0 min 135 W/m 18,8 km/h (3 Bft)
18.01.2015 12:48 4,8 C 4,4 C 79 % 1012,9 hPa 0,0 l/m 0 min 0 min 132 W/m 25,1 km/h (4 Bft)
18.01.2015 12:50 4,9 C 4,4 C 79 % 1012,9 hPa 0,0 l/m 0 min 0 min 128 W/m 23,0 km/h (4 Bft)
18.01.2015 12:52 4,9 C 4,4 C 78 % 1012,8 hPa 0,0 l/m 0 min 0 min 126 W/m 16,7 km/h (3 Bft)
18.01.2015 12:54 4,9 C 3,9 C 78 % 1012,8 hPa 0,0 l/m 0 min 0 min 123 W/m 23,0 km/h (4 Bft)
18.01.2015 12:56 4,9 C 3,9 C 78 % 1012,8 hPa 0,0 l/m 0 min 0 min 121 W/m 14,6 km/h (3 Bft)
18.01.2015 12:58 4,9 C 3,9 C 78 % 1012,8 hPa 0,0 l/m 0 min 0 min 118 W/m 14,6 km/h (3 Bft)
18.01.2015 13:00 4,9 C 3,9 C 78 % 1012,8 hPa 0,0 l/m 0 min 0 min 115 W/m 14,6 km/h (3 Bft)
18.01.2015 13:02 4,9 C 3,9 C 78 % 1012,7 hPa 0,0 l/m 0 min 0 min 113 W/m 27,2 km/h (4 Bft)
18.01.2015 13:04 4,9 C 3,9 C 78 % 1012,7 hPa 0,0 l/m 0 min 0 min 113 W/m 16,7 km/h (3 Bft)
18.01.2015 13:06 4,9 C 3,9 C 78 % 1012,7 hPa 0,0 l/m 0 min 0 min 113 W/m 20,9 km/h (4 Bft)
18.01.2015 13:08 4,9 C 3,9 C 78 % 1012,7 hPa 0,0 l/m 0 min 0 min 114 W/m 14,6 km/h (3 Bft)
18.01.2015 13:10 4,9 C 3,9 C 78 % 1012,7 hPa 0,0 l/m 0 min 0 min 116 W/m 12,6 km/h (3 Bft)
18.01.2015 13:12 4,9 C 4,4 C 78 % 1012,6 hPa 0,0 l/m 0 min 0 min 119 W/m 12,6 km/h (3 Bft)
18.01.2015 13:14 4,9 C 4,4 C 78 % 1012,6 hPa 0,0 l/m 0 min 0 min 122 W/m 16,7 km/h (3 Bft)
18.01.2015 13:16 4,9 C 3,9 C 78 % 1012,5 hPa 0,0 l/m 0 min 0 min 126 W/m 20,9 km/h (4 Bft)
18.01.2015 13:18 4,9 C 4,4 C 78 % 1012,5 hPa 0,0 l/m 0 min 0 min 131 W/m 12,6 km/h (3 Bft)
18.01.2015 13:20 4,9 C 4,4 C 78 % 1012,5 hPa 0,0 l/m 0 min 0 min 139 W/m 12,6 km/h (3 Bft)
18.01.2015 13:22 4,9 C 4,4 C 78 % 1012,4 hPa 0,0 l/m 0 min 0 min 143 W/m 16,7 km/h (3 Bft)
18.01.2015 13:24 4,9 C 4,4 C 78 % 1012,4 hPa 0,0 l/m 0 min 0 min 145 W/m 18,8 km/h (3 Bft)
18.01.2015 13:26 4,9 C 4,4 C 78 % 1012,3 hPa 0,0 l/m 0 min 0 min 146 W/m 18,8 km/h (3 Bft)
18.01.2015 13:28 4,9 C 4,4 C 78 % 1012,3 hPa 0,0 l/m 0 min 0 min 150 W/m 16,7 km/h (3 Bft)
18.01.2015 13:30 4,9 C 4,4 C 78 % 1012,3 hPa 0,0 l/m 0 min 0 min 149 W/m 12,6 km/h (3 Bft)
18.01.2015 13:32 4,9 C 4,4 C 78 % 1012,3 hPa 0,0 l/m 0 min 0 min 146 W/m 14,6 km/h (3 Bft)
18.01.2015 13:34 5,0 C 4,4 C 78 % 1012,4 hPa 0,0 l/m 0 min 0 min 147 W/m 23,0 km/h (4 Bft)
18.01.2015 13:36 5,0 C 4,4 C 78 % 1012,3 hPa 0,0 l/m 0 min 0 min 148 W/m 20,9 km/h (4 Bft)
18.01.2015 13:38 5,0 C 4,4 C 78 % 1012,3 hPa 0,0 l/m 2 min 0 min 155 W/m 20,9 km/h (4 Bft)
18.01.2015 13:40 5,0 C 4,4 C 78 % 1012,3 hPa 0,0 l/m 2 min 0 min 178 W/m 16,7 km/h (3 Bft)
18.01.2015 13:42 5,0 C 4,4 C 78 % 1012,3 hPa 0,0 l/m 2 min 0 min 208 W/m 25,1 km/h (4 Bft)
18.01.2015 13:44 5,0 C 4,4 C 78 % 1012,3 hPa 0,0 l/m 2 min 0 min 228 W/m 14,6 km/h (3 Bft)
18.01.2015 13:46 5,1 C 4,4 C 78 % 1012,3 hPa 0,0 l/m 2 min 0 min 209 W/m 16,7 km/h (3 Bft)
18.01.2015 13:48 5,1 C 4,4 C 78 % 1012,3 hPa 0,0 l/m 2 min 0 min 187 W/m 23,0 km/h (4 Bft)
18.01.2015 13:50 5,1 C 4,4 C 78 % 1012,3 hPa 0,0 l/m 2 min 0 min 166 W/m 16,7 km/h (3 Bft)
18.01.2015 13:52 5,2 C 4,4 C 78 % 1012,2 hPa 0,0 l/m 2 min 0 min 158 W/m 14,6 km/h (3 Bft)
18.01.2015 13:54 5,2 C 4,4 C 78 % 1012,3 hPa 0,0 l/m 2 min 0 min 150 W/m 18,8 km/h (3 Bft)
18.01.2015 13:56 5,2 C 4,4 C 77 % 1012,3 hPa 0,0 l/m 2 min 0 min 151 W/m 18,8 km/h (3 Bft)
18.01.2015 13:58 5,2 C 4,4 C 77 % 1012,2 hPa 0,0 l/m 2 min 0 min 149 W/m 14,6 km/h (3 Bft)
18.01.2015 14:00 5,2 C 4,4 C 77 % 1012,2 hPa 0,0 l/m 2 min 0 min 152 W/m 18,8 km/h (3 Bft)
18.01.2015 14:02 5,2 C 4,4 C 77 % 1012,2 hPa 0,0 l/m 2 min 0 min 144 W/m 14,6 km/h (3 Bft)
18.01.2015 14:04 5,2 C 4,4 C 77 % 1012,2 hPa 0,0 l/m 2 min 0 min 145 W/m 14,6 km/h (3 Bft)
18.01.2015 14:06 5,2 C 4,4 C 77 % 1012,2 hPa 0,0 l/m 2 min 0 min 140 W/m 20,9 km/h (4 Bft)
18.01.2015 14:08 5,2 C 4,4 C 77 % 1012,1 hPa 0,0 l/m 2 min 0 min 148 W/m 23,0 km/h (4 Bft)
18.01.2015 14:10 5,2 C 4,4 C 76 % 1012,1 hPa 0,0 l/m 2 min 0 min 153 W/m 18,8 km/h (3 Bft)
18.01.2015 14:12 5,2 C 4,4 C 76 % 1012,1 hPa 0,0 l/m 2 min 0 min 151 W/m 16,7 km/h (3 Bft)
18.01.2015 14:14 5,2 C 4,4 C 76 % 1012,1 hPa 0,0 l/m 2 min 0 min 145 W/m 25,1 km/h (4 Bft)
18.01.2015 14:16 5,2 C 4,4 C 76 % 1012,1 hPa 0,0 l/m 2 min 0 min 146 W/m 16,7 km/h (3 Bft)
18.01.2015 14:18 5,2 C 4,4 C 76 % 1012,1 hPa 0,0 l/m 2 min 0 min 147 W/m 18,8 km/h (3 Bft)
18.01.2015 14:20 5,2 C 4,4 C 76 % 1012,0 hPa 0,0 l/m 2 min 0 min 150 W/m 23,0 km/h (4 Bft)
18.01.2015 14:22 5,2 C 4,4 C 76 % 1012,0 hPa 0,0 l/m 2 min 0 min 152 W/m 20,9 km/h (4 Bft)
18.01.2015 14:24 5,2 C 4,4 C 76 % 1012,0 hPa 0,0 l/m 2 min 0 min 167 W/m 16,7 km/h (3 Bft)
18.01.2015 14:26 5,2 C 4,4 C 76 % 1012,0 hPa 0,0 l/m 2 min 0 min 218 W/m 16,7 km/h (3 Bft)
18.01.2015 14:28 5,2 C 4,4 C 76 % 1012,0 hPa 0,0 l/m 2 min 0 min 214 W/m 20,9 km/h (4 Bft)
18.01.2015 14:30 5,3 C 4,4 C 76 % 1011,9 hPa 0,0 l/m 2 min 0 min 199 W/m 23,0 km/h (4 Bft)
18.01.2015 14:32 5,3 C 4,4 C 76 % 1012,0 hPa 0,0 l/m 2 min 0 min 207 W/m 23,0 km/h (4 Bft)
18.01.2015 14:34 5,3 C 4,4 C 76 % 1012,0 hPa 0,0 l/m 2 min 0 min 194 W/m 23,0 km/h (4 Bft)
18.01.2015 14:36 5,4 C 4,4 C 76 % 1012,0 hPa 0,0 l/m 2 min 0 min 165 W/m 16,7 km/h (3 Bft)
18.01.2015 14:38 5,4 C 4,4 C 76 % 1012,0 hPa 0,0 l/m 2 min 0 min 125 W/m 18,8 km/h (3 Bft)
18.01.2015 14:40 5,4 C 4,4 C 75 % 1012,0 hPa 0,0 l/m 0 min 0 min 98 W/m 16,7 km/h (3 Bft)
18.01.2015 14:42 5,4 C 3,9 C 75 % 1012,0 hPa 0,0 l/m 0 min 0 min 88 W/m 16,7 km/h (3 Bft)
18.01.2015 14:44 5,4 C 3,9 C 75 % 1012,0 hPa 0,0 l/m 0 min 0 min 86 W/m 20,9 km/h (4 Bft)
18.01.2015 14:46 5,4 C 3,9 C 75 % 1011,9 hPa 0,0 l/m 0 min 0 min 78 W/m 18,8 km/h (3 Bft)
18.01.2015 14:48 5,4 C 3,9 C 75 % 1011,9 hPa 0,0 l/m 0 min 0 min 70 W/m 12,6 km/h (3 Bft)
18.01.2015 14:50 5,4 C 3,3 C 75 % 1012,0 hPa 0,0 l/m 0 min 0 min 64 W/m 14,6 km/h (3 Bft)
18.01.2015 14:52 5,4 C 3,3 C 75 % 1011,9 hPa 0,0 l/m 0 min 0 min 60 W/m 16,7 km/h (3 Bft)
18.01.2015 14:54 5,3 C 3,3 C 75 % 1011,9 hPa 0,0 l/m 0 min 0 min 55 W/m 18,8 km/h (3 Bft)
18.01.2015 14:56 5,3 C 3,3 C 75 % 1011,9 hPa 0,0 l/m 0 min 0 min 53 W/m 25,1 km/h (4 Bft)
18.01.2015 14:58 5,2 C 3,3 C 75 % 1012,0 hPa 0,0 l/m 0 min 0 min 53 W/m 16,7 km/h (3 Bft)
18.01.2015 15:00 5,2 C 3,3 C 75 % 1012,0 hPa 0,0 l/m 0 min 0 min 54 W/m 12,6 km/h (3 Bft)
18.01.2015 15:02 5,2 C 3,3 C 75 % 1012,0 hPa 0,0 l/m 0 min 0 min 57 W/m 10,5 km/h (2 Bft)
18.01.2015 15:04 5,2 C 3,3 C 75 % 1012,0 hPa 0,0 l/m 0 min 0 min 60 W/m 10,5 km/h (2 Bft)
18.01.2015 15:06 5,1 C 3,3 C 75 % 1011,9 hPa 0,0 l/m 0 min 0 min 63 W/m 10,5 km/h (2 Bft)
18.01.2015 15:08 5,1 C 3,3 C 75 % 1011,9 hPa 0,0 l/m 0 min 0 min 72 W/m 14,6 km/h (3 Bft)
18.01.2015 15:10 5,0 C 3,3 C 75 % 1011,9 hPa 0,0 l/m 0 min 0 min 81 W/m 20,9 km/h (4 Bft)
18.01.2015 15:12 5,0 C 3,3 C 75 % 1011,9 hPa 0,0 l/m 0 min 0 min 88 W/m 18,8 km/h (3 Bft)
18.01.2015 15:14 5,0 C 3,3 C 75 % 1011,9 hPa 0,0 l/m 0 min 0 min 86 W/m 16,7 km/h (3 Bft)
18.01.2015 15:16 4,9 C 3,3 C 75 % 1011,9 hPa 0,0 l/m 0 min 0 min 83 W/m 12,6 km/h (3 Bft)
18.01.2015 15:18 4,9 C 3,3 C 75 % 1011,9 hPa 0,0 l/m 0 min 0 min 91 W/m 12,6 km/h (3 Bft)
18.01.2015 15:20 4,9 C 3,3 C 76 % 1011,9 hPa 0,0 l/m 2 min 0 min 99 W/m 23,0 km/h (4 Bft)
18.01.2015 15:22 4,9 C 3,9 C 76 % 1011,8 hPa 0,0 l/m 2 min 0 min 108 W/m 16,7 km/h (3 Bft)
18.01.2015 15:24 4,9 C 3,9 C 76 % 1011,9 hPa 0,0 l/m 2 min 0 min 109 W/m 16,7 km/h (3 Bft)
18.01.2015 15:26 4,9 C 3,9 C 76 % 1011,8 hPa 0,0 l/m 2 min 0 min 108 W/m 16,7 km/h (3 Bft)
18.01.2015 15:28 4,9 C 3,9 C 76 % 1011,8 hPa 0,0 l/m 2 min 0 min 116 W/m 14,6 km/h (3 Bft)
18.01.2015 15:30 4,9 C 3,9 C 76 % 1011,8 hPa 0,0 l/m 2 min 0 min 114 W/m 16,7 km/h (3 Bft)
18.01.2015 15:32 4,9 C 3,9 C 75 % 1011,8 hPa 0,0 l/m 2 min 0 min 110 W/m 20,9 km/h (4 Bft)
18.01.2015 15:34 4,9 C 3,9 C 75 % 1011,8 hPa 0,0 l/m 2 min 0 min 113 W/m 14,6 km/h (3 Bft)
18.01.2015 15:36 4,9 C 3,9 C 75 % 1011,8 hPa 0,0 l/m 2 min 0 min 116 W/m 14,6 km/h (3 Bft)
18.01.2015 15:38 4,9 C 3,9 C 75 % 1011,8 hPa 0,0 l/m 2 min 0 min 116 W/m 16,7 km/h (3 Bft)
18.01.2015 15:40 5,0 C 3,9 C 75 % 1011,8 hPa 0,0 l/m 2 min 0 min 110 W/m 16,7 km/h (3 Bft)
18.01.2015 15:42 5,0 C 3,9 C 75 % 1011,7 hPa 0,0 l/m 2 min 0 min 92 W/m 18,8 km/h (3 Bft)
18.01.2015 15:44 5,0 C 3,9 C 75 % 1011,7 hPa 0,0 l/m 2 min 0 min 80 W/m 14,6 km/h (3 Bft)
18.01.2015 15:46 5,0 C 3,9 C 75 % 1011,7 hPa 0,0 l/m 2 min 0 min 72 W/m 16,7 km/h (3 Bft)
18.01.2015 15:48 5,0 C 3,9 C 75 % 1011,7 hPa 0,0 l/m 0 min 0 min 66 W/m 14,6 km/h (3 Bft)
18.01.2015 15:50 5,0 C 3,9 C 74 % 1011,8 hPa 0,0 l/m 0 min 0 min 59 W/m 23,0 km/h (4 Bft)
18.01.2015 15:52 4,9 C 3,3 C 74 % 1011,8 hPa 0,0 l/m 0 min 0 min 52 W/m 14,6 km/h (3 Bft)
18.01.2015 15:54 4,9 C 3,3 C 74 % 1011,8 hPa 0,0 l/m 0 min 0 min 46 W/m 14,6 km/h (3 Bft)
18.01.2015 15:56 4,9 C 3,3 C 74 % 1011,8 hPa 0,0 l/m 0 min 0 min 42 W/m 12,6 km/h (3 Bft)
18.01.2015 15:58 4,9 C 3,3 C 74 % 1011,7 hPa 0,0 l/m 0 min 0 min 39 W/m 14,6 km/h (3 Bft)
18.01.2015 16:00 4,9 C 2,8 C 74 % 1011,8 hPa 0,0 l/m 0 min 0 min 36 W/m 14,6 km/h (3 Bft)
18.01.2015 16:02 4,9 C 2,8 C 74 % 1011,8 hPa 0,0 l/m 0 min 0 min 33 W/m 10,5 km/h (2 Bft)
18.01.2015 16:04 4,8 C 2,8 C 75 % 1011,8 hPa 0,0 l/m 0 min 0 min 33 W/m 14,6 km/h (3 Bft)
18.01.2015 16:06 4,8 C 2,8 C 75 % 1011,9 hPa 0,0 l/m 0 min 0 min 32 W/m 14,6 km/h (3 Bft)
18.01.2015 16:08 4,8 C 2,8 C 75 % 1011,8 hPa 0,0 l/m 0 min 0 min 33 W/m 10,5 km/h (2 Bft)
18.01.2015 16:10 4,7 C 2,8 C 75 % 1011,9 hPa 0,0 l/m 0 min 0 min 33 W/m 12,6 km/h (3 Bft)
18.01.2015 16:12 4,7 C 2,8 C 75 % 1011,9 hPa 0,0 l/m 0 min 0 min 33 W/m 16,7 km/h (3 Bft)
18.01.2015 16:14 4,7 C 2,8 C 75 % 1011,9 hPa 0,0 l/m 0 min 0 min 32 W/m 12,6 km/h (3 Bft)
18.01.2015 16:16 4,6 C 2,8 C 75 % 1011,8 hPa 0,0 l/m 0 min 0 min 31 W/m 12,6 km/h (3 Bft)
18.01.2015 16:18 4,6 C 2,8 C 75 % 1011,9 hPa 0,0 l/m 0 min 0 min 29 W/m 16,7 km/h (3 Bft)
18.01.2015 16:20 4,6 C 2,8 C 75 % 1011,8 hPa 0,0 l/m 0 min 0 min 28 W/m 10,5 km/h (2 Bft)
18.01.2015 16:22 4,5 C 2,8 C 76 % 1011,9 hPa 0,0 l/m 0 min 0 min 27 W/m 12,6 km/h (3 Bft)
18.01.2015 16:24 4,5 C 2,2 C 76 % 1011,8 hPa 0,0 l/m 0 min 0 min 26 W/m 14,6 km/h (3 Bft)
18.01.2015 16:26 4,4 C 2,2 C 76 % 1011,9 hPa 0,0 l/m 0 min 0 min 26 W/m 8,4 km/h (2 Bft)
18.01.2015 16:28 4,4 C 2,2 C 76 % 1011,8 hPa 0,0 l/m 0 min 0 min 25 W/m 10,5 km/h (2 Bft)
18.01.2015 16:30 4,4 C 2,2 C 76 % 1011,8 hPa 0,0 l/m 0 min 0 min 23 W/m 8,4 km/h (2 Bft)
18.01.2015 16:32 4,4 C 2,2 C 76 % 1011,8 hPa 0,0 l/m 0 min 0 min 20 W/m 16,7 km/h (3 Bft)
18.01.2015 16:34 4,3 C 2,2 C 76 % 1011,9 hPa 0,0 l/m 0 min 0 min 18 W/m 10,5 km/h (2 Bft)
18.01.2015 16:36 4,3 C 2,2 C 76 % 1011,8 hPa 0,0 l/m 0 min 0 min 16 W/m 14,6 km/h (3 Bft)
18.01.2015 16:38 4,3 C 2,2 C 77 % 1011,8 hPa 0,0 l/m 0 min 0 min 14 W/m 14,6 km/h (3 Bft)
18.01.2015 16:40 4,2 C 2,2 C 77 % 1011,8 hPa 0,0 l/m 0 min 0 min 12 W/m 16,7 km/h (3 Bft)
18.01.2015 16:42 4,2 C 2,2 C 77 % 1011,9 hPa 0,0 l/m 0 min 0 min 12 W/m 12,6 km/h (3 Bft)
18.01.2015 16:44 4,2 C 1,7 C 77 % 1011,8 hPa 0,0 l/m 2 min 0 min 11 W/m 10,5 km/h (2 Bft)
18.01.2015 16:46 4,2 C 1,7 C 77 % 1011,8 hPa 0,0 l/m 0 min 0 min 9 W/m 10,5 km/h (2 Bft)
18.01.2015 16:48 4,1 C 1,7 C 77 % 1011,8 hPa 0,0 l/m 0 min 0 min 9 W/m 10,5 km/h (2 Bft)
18.01.2015 16:50 4,1 C 1,7 C 77 % 1011,8 hPa 0,0 l/m 0 min 0 min 9 W/m 8,4 km/h (2 Bft)
18.01.2015 16:52 4,1 C 1,7 C 77 % 1011,8 hPa 0,0 l/m 0 min 0 min 9 W/m 10,5 km/h (2 Bft)
18.01.2015 16:54 4,0 C 1,7 C 77 % 1011,8 hPa 0,0 l/m 0 min 0 min 7 W/m 10,5 km/h (2 Bft)
18.01.2015 16:56 4,0 C 1,7 C 77 % 1011,8 hPa 0,0 l/m 0 min 0 min 7 W/m 12,6 km/h (3 Bft)
18.01.2015 16:58 3,9 C 1,7 C 77 % 1011,8 hPa 0,0 l/m 0 min 0 min 7 W/m 10,5 km/h (2 Bft)
18.01.2015 17:00 3,9 C 1,7 C 77 % 1011,8 hPa 0,0 l/m 0 min 0 min 5 W/m 8,4 km/h (2 Bft)
18.01.2015 17:02 3,9 C 1,7 C 78 % 1011,8 hPa 0,0 l/m 0 min 0 min 5 W/m 8,4 km/h (2 Bft)
18.01.2015 17:04 3,9 C 1,7 C 78 % 1011,8 hPa 0,0 l/m 0 min 0 min 5 W/m 6,3 km/h (2 Bft)
18.01.2015 17:06 3,8 C 1,7 C 78 % 1011,8 hPa 0,0 l/m 0 min 0 min 5 W/m 6,3 km/h (2 Bft)
18.01.2015 17:08 3,8 C 1,7 C 78 % 1011,8 hPa 0,0 l/m 0 min 0 min 2 W/m 8,4 km/h (2 Bft)
18.01.2015 17:10 3,8 C 1,7 C 78 % 1011,7 hPa 0,0 l/m 0 min 0 min 0 W/m 8,4 km/h (2 Bft)
18.01.2015 17:12 3,7 C 1,7 C 78 % 1011,7 hPa 0,0 l/m 0 min 0 min 0 W/m 8,4 km/h (2 Bft)
18.01.2015 17:14 3,7 C 1,7 C 78 % 1011,6 hPa 0,0 l/m 0 min 0 min 0 W/m 10,5 km/h (2 Bft)
18.01.2015 17:16 3,7 C 1,1 C 78 % 1011,7 hPa 0,0 l/m 0 min 0 min 0 W/m 12,6 km/h (3 Bft)
18.01.2015 17:18 3,7 C 1,1 C 78 % 1011,7 hPa 0,0 l/m 0 min 0 min 0 W/m 8,4 km/h (2 Bft)
18.01.2015 17:20 3,6 C 1,1 C 78 % 1011,6 hPa 0,0 l/m 0 min 0 min 0 W/m 10,5 km/h (2 Bft)
18.01.2015 17:22 3,6 C 1,1 C 78 % 1011,7 hPa 0,0 l/m 0 min 0 min 0 W/m 10,5 km/h (2 Bft)
18.01.2015 17:24 3,6 C 1,1 C 78 % 1011,6 hPa 0,0 l/m 0 min 0 min 0 W/m 12,6 km/h (3 Bft)
18.01.2015 17:26 3,5 C 1,7 C 78 % 1011,7 hPa 0,0 l/m 0 min 0 min 0 W/m 10,5 km/h (2 Bft)
18.01.2015 17:28 3,5 C 1,7 C 79 % 1011,7 hPa 0,0 l/m 0 min 0 min 0 W/m 6,3 km/h (2 Bft)
18.01.2015 17:30 3,4 C 1,7 C 79 % 1011,7 hPa 0,0 l/m 0 min 0 min 0 W/m 8,4 km/h (2 Bft)
18.01.2015 17:32 3,4 C 1,7 C 79 % 1011,7 hPa 0,0 l/m 0 min 0 min 0 W/m 8,4 km/h (2 Bft)
18.01.2015 17:34 3,4 C 1,7 C 79 % 1011,7 hPa 0,0 l/m 0 min 0 min 0 W/m 8,4 km/h (2 Bft)
18.01.2015 17:36 3,4 C 1,7 C 79 % 1011,7 hPa 0,0 l/m 0 min 0 min 0 W/m 10,5 km/h (2 Bft)
18.01.2015 17:38 3,3 C 1,7 C 79 % 1011,7 hPa 0,0 l/m 0 min 0 min 0 W/m 10,5 km/h (2 Bft)
18.01.2015 17:40 3,3 C 1,7 C 79 % 1011,7 hPa 0,0 l/m 0 min 0 min 0 W/m 8,4 km/h (2 Bft)
18.01.2015 17:42 3,3 C 1,1 C 79 % 1011,7 hPa 0,0 l/m 0 min 0 min 0 W/m 14,6 km/h (3 Bft)
18.01.2015 17:44 3,3 C 1,1 C 79 % 1011,7 hPa 0,0 l/m 0 min 0 min 0 W/m 14,6 km/h (3 Bft)
18.01.2015 17:46 3,3 C 1,1 C 79 % 1011,7 hPa 0,0 l/m 0 min 0 min 0 W/m 16,7 km/h (3 Bft)
18.01.2015 17:48 3,2 C 1,1 C 79 % 1011,7 hPa 0,0 l/m 0 min 0 min 0 W/m 12,6 km/h (3 Bft)
18.01.2015 17:50 3,2 C 1,1 C 79 % 1011,7 hPa 0,0 l/m 0 min 0 min 0 W/m 14,6 km/h (3 Bft)
18.01.2015 17:52 3,2 C 1,1 C 79 % 1011,8 hPa 0,0 l/m 0 min 0 min 0 W/m 12,6 km/h (3 Bft)
18.01.2015 17:54 3,2 C 1,1 C 79 % 1011,8 hPa 0,0 l/m 0 min 0 min 0 W/m 12,6 km/h (3 Bft)
18.01.2015 17:56 3,2 C 1,1 C 79 % 1011,8 hPa 0,0 l/m 0 min 0 min 0 W/m 16,7 km/h (3 Bft)
18.01.2015 17:58 3,2 C 1,1 C 79 % 1011,8 hPa 0,0 l/m 0 min 0 min 0 W/m 12,6 km/h (3 Bft)
18.01.2015 18:00 3,1 C 1,1 C 79 % 1011,8 hPa 0,0 l/m 0 min 0 min 0 W/m 12,6 km/h (3 Bft)
18.01.2015 18:03 3,1 C 1,1 C 79 % 1011,8 hPa 0,0 l/m 0 min 0 min 0 W/m 12,6 km/h (3 Bft)
18.01.2015 18:04 3,1 C 1,1 C 79 % 1011,8 hPa 0,0 l/m 0 min 0 min 0 W/m 12,6 km/h (3 Bft)
18.01.2015 18:06 3,1 C 1,1 C 79 % 1011,8 hPa 0,0 l/m 0 min 0 min 0 W/m 14,6 km/h (3 Bft)
18.01.2015 18:08 3,1 C 1,7 C 79 % 1011,8 hPa 0,0 l/m 0 min 0 min 0 W/m 14,6 km/h (3 Bft)
18.01.2015 18:10 3,1 C 1,7 C 80 % 1011,8 hPa 0,0 l/m 0 min 0 min 0 W/m 16,7 km/h (3 Bft)
18.01.2015 18:12 3,1 C 1,1 C 80 % 1011,8 hPa 0,0 l/m 0 min 0 min 0 W/m 12,6 km/h (3 Bft)
18.01.2015 18:14 3,1 C 1,7 C 80 % 1011,8 hPa 0,0 l/m 0 min 0 min 0 W/m 16,7 km/h (3 Bft)
18.01.2015 18:16 3,1 C 1,7 C 80 % 1011,7 hPa 0,0 l/m 0 min 0 min 0 W/m 12,6 km/h (3 Bft)
18.01.2015 18:18 3,1 C 1,1 C 80 % 1011,8 hPa 0,0 l/m 0 min 0 min 0 W/m 14,6 km/h (3 Bft)
18.01.2015 18:20 3,1 C 1,1 C 80 % 1011,8 hPa 0,0 l/m 0 min 0 min 0 W/m 14,6 km/h (3 Bft)
18.01.2015 18:22 3,0 C 1,7 C 80 % 1011,8 hPa 0,0 l/m 0 min 0 min 0 W/m 16,7 km/h (3 Bft)
18.01.2015 18:24 3,0 C 1,1 C 80 % 1011,8 hPa 0,0 l/m 0 min 0 min 0 W/m 10,5 km/h (2 Bft)
18.01.2015 18:26 3,0 C 1,1 C 80 % 1011,8 hPa 0,0 l/m 0 min 0 min 0 W/m 14,6 km/h (3 Bft)
18.01.2015 18:28 3,0 C 1,1 C 80 % 1011,8 hPa 0,0 l/m 0 min 0 min 0 W/m 12,6 km/h (3 Bft)
18.01.2015 18:30 2,9 C 1,1 C 80 % 1011,9 hPa 0,0 l/m 0 min 0 min 0 W/m 12,6 km/h (3 Bft)
18.01.2015 18:32 2,9 C 1,1 C 80 % 1011,8 hPa 0,0 l/m 0 min 0 min 0 W/m 14,6 km/h (3 Bft)
18.01.2015 18:34 2,9 C 1,1 C 80 % 1011,9 hPa 0,0 l/m 0 min 0 min 0 W/m 12,6 km/h (3 Bft)
18.01.2015 18:36 2,9 C 1,1 C 80 % 1011,9 hPa 0,0 l/m 0 min 0 min 0 W/m 12,6 km/h (3 Bft)
18.01.2015 18:38 2,9 C 1,1 C 80 % 1011,9 hPa 0,0 l/m 0 min 0 min 0 W/m 14,6 km/h (3 Bft)
18.01.2015 18:40 2,9 C 1,1 C 80 % 1011,8 hPa 0,0 l/m 0 min 0 min 0 W/m 18,8 km/h (3 Bft)
18.01.2015 18:42 2,9 C 1,1 C 80 % 1011,8 hPa 0,0 l/m 0 min 0 min 0 W/m 16,7 km/h (3 Bft)
18.01.2015 18:44 2,9 C 1,1 C 80 % 1011,8 hPa 0,0 l/m 0 min 0 min 0 W/m 14,6 km/h (3 Bft)
18.01.2015 18:46 2,9 C 1,1 C 80 % 1011,9 hPa 0,0 l/m 0 min 0 min 0 W/m 12,6 km/h (3 Bft)
18.01.2015 18:48 2,8 C 1,1 C 80 % 1011,9 hPa 0,0 l/m 0 min 0 min 0 W/m 16,7 km/h (3 Bft)
18.01.2015 18:50 2,8 C 1,1 C 80 % 1011,9 hPa 0,0 l/m 0 min 0 min 0 W/m 12,6 km/h (3 Bft)
18.01.2015 18:52 2,8 C 1,1 C 80 % 1012,0 hPa 0,0 l/m 0 min 0 min 0 W/m 12,6 km/h (3 Bft)
18.01.2015 18:54 2,8 C 1,1 C 80 % 1012,0 hPa 0,0 l/m 0 min 0 min 0 W/m 12,6 km/h (3 Bft)
18.01.2015 18:56 2,8 C 1,1 C 80 % 1012,0 hPa 0,0 l/m 0 min 0 min 0 W/m 20,9 km/h (4 Bft)
18.01.2015 18:58 2,8 C 1,1 C 81 % 1012,1 hPa 0,0 l/m 0 min 0 min 0 W/m 10,5 km/h (2 Bft)
18.01.2015 19:00 2,8 C 1,1 C 81 % 1012,1 hPa 0,0 l/m 0 min 0 min 0 W/m 18,8 km/h (3 Bft)
18.01.2015 19:02 2,8 C 1,1 C 81 % 1012,1 hPa 0,0 l/m 0 min 0 min 0 W/m 12,6 km/h (3 Bft)
18.01.2015 19:04 2,8 C 1,1 C 81 % 1012,1 hPa 0,0 l/m 0 min 0 min 0 W/m 10,5 km/h (2 Bft)
18.01.2015 19:06 2,8 C 1,1 C 81 % 1012,1 hPa 0,0 l/m 0 min 0 min 0 W/m 12,6 km/h (3 Bft)
18.01.2015 19:08 2,7 C 1,1 C 81 % 1012,1 hPa 0,0 l/m 0 min 0 min 0 W/m 12,6 km/h (3 Bft)
18.01.2015 19:10 2,7 C 1,1 C 81 % 1012,1 hPa 0,0 l/m 0 min 0 min 0 W/m 16,7 km/h (3 Bft)
18.01.2015 19:12 2,7 C 1,1 C 81 % 1012,1 hPa 0,0 l/m 0 min 0 min 0 W/m 12,6 km/h (3 Bft)
18.01.2015 19:14 2,7 C 1,1 C 81 % 1012,1 hPa 0,0 l/m 0 min 0 min 0 W/m 14,6 km/h (3 Bft)
18.01.2015 19:16 2,7 C 1,1 C 81 % 1012,1 hPa 0,0 l/m 0 min 0 min 0 W/m 12,6 km/h (3 Bft)
18.01.2015 19:18 2,7 C 1,1 C 81 % 1012,2 hPa 0,0 l/m 0 min 0 min 0 W/m 12,6 km/h (3 Bft)
18.01.2015 19:20 2,6 C 1,1 C 81 % 1012,1 hPa 0,0 l/m 0 min 0 min 0 W/m 10,5 km/h (2 Bft)
18.01.2015 19:22 2,7 C 1,1 C 81 % 1012,2 hPa 0,0 l/m 0 min 0 min 0 W/m 14,6 km/h (3 Bft)
18.01.2015 19:24 2,6 C 0,6 C 81 % 1012,2 hPa 0,0 l/m 0 min 0 min 0 W/m 14,6 km/h (3 Bft)
18.01.2015 19:26 2,6 C 0,6 C 81 % 1012,2 hPa 0,0 l/m 0 min 0 min 0 W/m 16,7 km/h (3 Bft)
18.01.2015 19:28 2,6 C 0,6 C 81 % 1012,2 hPa 0,0 l/m 0 min 0 min 0 W/m 16,7 km/h (3 Bft)
18.01.2015 19:30 2,6 C 0,6 C 81 % 1012,1 hPa 0,0 l/m 0 min 0 min 0 W/m 14,6 km/h (3 Bft)
18.01.2015 19:32 2,5 C 0,6 C 81 % 1012,1 hPa 0,0 l/m 0 min 0 min 0 W/m 12,6 km/h (3 Bft)
18.01.2015 19:34 2,5 C 0,6 C 81 % 1012,1 hPa 0,0 l/m 0 min 0 min 0 W/m 12,6 km/h (3 Bft)
18.01.2015 19:36 2,4 C 0,6 C 81 % 1012,1 hPa 0,0 l/m 0 min 0 min 0 W/m 14,6 km/h (3 Bft)
18.01.2015 19:38 2,4 C 0,6 C 81 % 1012,2 hPa 0,0 l/m 0 min 0 min 0 W/m 10,5 km/h (2 Bft)
18.01.2015 19:40 2,4 C 0,6 C 81 % 1012,2 hPa 0,0 l/m 0 min 0 min 0 W/m 12,6 km/h (3 Bft)
18.01.2015 19:42 2,4 C 0,6 C 81 % 1012,2 hPa 0,0 l/m 0 min 0 min 0 W/m 12,6 km/h (3 Bft)
18.01.2015 19:44 2,3 C 0,0 C 81 % 1012,3 hPa 0,0 l/m 0 min 0 min 0 W/m 12,6 km/h (3 Bft)
18.01.2015 19:46 2,3 C 0,0 C 81 % 1012,2 hPa 0,0 l/m 0 min 0 min 0 W/m 10,5 km/h (2 Bft)
18.01.2015 19:48 2,3 C 0,0 C 82 % 1012,2 hPa 0,0 l/m 0 min 0 min 0 W/m 10,5 km/h (2 Bft)
18.01.2015 19:50 2,3 C 0,0 C 82 % 1012,2 hPa 0,0 l/m 0 min 0 min 0 W/m 10,5 km/h (2 Bft)
18.01.2015 19:52 2,2 C 0,0 C 82 % 1012,3 hPa 0,0 l/m 0 min 0 min 0 W/m 14,6 km/h (3 Bft)
18.01.2015 19:54 2,2 C 0,0 C 82 % 1012,3 hPa 0,0 l/m 0 min 0 min 0 W/m 14,6 km/h (3 Bft)
18.01.2015 19:56 2,2 C 0,0 C 82 % 1012,3 hPa 0,0 l/m 0 min 0 min 0 W/m 10,5 km/h (2 Bft)
18.01.2015 19:58 2,2 C 0,0 C 82 % 1012,3 hPa 0,0 l/m 0 min 0 min 0 W/m 12,6 km/h (3 Bft)
18.01.2015 20:00 2,2 C 0,0 C 82 % 1012,3 hPa 0,0 l/m 0 min 0 min 0 W/m 10,5 km/h (2 Bft)
18.01.2015 20:02 2,1 C 0,0 C 82 % 1012,4 hPa 0,0 l/m 0 min 0 min 0 W/m 10,5 km/h (2 Bft)
18.01.2015 20:04 2,1 C 0,0 C 82 % 1012,4 hPa 0,0 l/m 0 min 0 min 0 W/m 12,6 km/h (3 Bft)
18.01.2015 20:06 2,1 C 0,0 C 82 % 1012,3 hPa 0,0 l/m 0 min 0 min 0 W/m 12,6 km/h (3 Bft)
18.01.2015 20:08 2,0 C 0,0 C 83 % 1012,4 hPa 0,0 l/m 0 min 0 min 0 W/m 16,7 km/h (3 Bft)
18.01.2015 20:10 2,0 C 0,0 C 83 % 1012,4 hPa 0,0 l/m 0 min 0 min 0 W/m 10,5 km/h (2 Bft)
18.01.2015 20:12 2,0 C 0,0 C 83 % 1012,4 hPa 0,0 l/m 0 min 0 min 0 W/m 14,6 km/h (3 Bft)
18.01.2015 20:14 1,9 C 0,0 C 83 % 1012,4 hPa 0,0 l/m 0 min 0 min 0 W/m 10,5 km/h (2 Bft)
18.01.2015 20:16 1,9 C 0,0 C 83 % 1012,4 hPa 0,0 l/m 0 min 0 min 0 W/m 12,6 km/h (3 Bft)
18.01.2015 20:18 1,9 C 0,0 C 83 % 1012,4 hPa 0,0 l/m 0 min 0 min 0 W/m 12,6 km/h (3 Bft)
18.01.2015 20:20 1,9 C 0,0 C 83 % 1012,4 hPa 0,0 l/m 0 min 0 min 0 W/m 14,6 km/h (3 Bft)
18.01.2015 20:22 1,9 C 0,0 C 83 % 1012,4 hPa 0,0 l/m 0 min 0 min 0 W/m 14,6 km/h (3 Bft)
18.01.2015 20:24 1,8 C 0,0 C 83 % 1012,4 hPa 0,0 l/m 0 min 0 min 0 W/m 14,6 km/h (3 Bft)
18.01.2015 20:26 1,8 C 0,0 C 83 % 1012,4 hPa 0,0 l/m 0 min 0 min 0 W/m 12,6 km/h (3 Bft)
18.01.2015 20:28 1,8 C 0,0 C 83 % 1012,5 hPa 0,0 l/m 0 min 0 min 0 W/m 12,6 km/h (3 Bft)
18.01.2015 20:30 1,8 C 0,0 C 84 % 1012,5 hPa 0,0 l/m 0 min 0 min 0 W/m 14,6 km/h (3 Bft)
18.01.2015 20:32 1,7 C 0,0 C 83 % 1012,5 hPa 0,0 l/m 0 min 0 min 0 W/m 12,6 km/h (3 Bft)
18.01.2015 20:34 1,7 C 0,0 C 83 % 1012,5 hPa 0,0 l/m 0 min 0 min 0 W/m 14,6 km/h (3 Bft)
18.01.2015 20:36 1,7 C 0,0 C 84 % 1012,4 hPa 0,0 l/m 0 min 0 min 0 W/m 12,6 km/h (3 Bft)
18.01.2015 20:38 1,7 C -0,6 C 84 % 1012,4 hPa 0,0 l/m 0 min 0 min 0 W/m 12,6 km/h (3 Bft)
18.01.2015 20:40 1,7 C -0,6 C 84 % 1012,4 hPa 0,0 l/m 0 min 0 min 0 W/m 12,6 km/h (3 Bft)
18.01.2015 20:42 1,6 C -0,6 C 84 % 1012,4 hPa 0,0 l/m 0 min 0 min 0 W/m 10,5 km/h (2 Bft)
18.01.2015 20:44 1,6 C -0,6 C 84 % 1012,5 hPa 0,0 l/m 0 min 0 min 0 W/m 12,6 km/h (3 Bft)
18.01.2015 20:46 1,6 C -0,6 C 84 % 1012,5 hPa 0,0 l/m 0 min 0 min 0 W/m 14,6 km/h (3 Bft)
18.01.2015 20:48 1,6 C -0,6 C 84 % 1012,6 hPa 0,0 l/m 0 min 0 min 0 W/m 14,6 km/h (3 Bft)
18.01.2015 20:50 1,5 C -0,6 C 84 % 1012,5 hPa 0,0 l/m 0 min 0 min 0 W/m 12,6 km/h (3 Bft)
18.01.2015 20:52 1,5 C -0,6 C 84 % 1012,5 hPa 0,0 l/m 0 min 0 min 0 W/m 14,6 km/h (3 Bft)
18.01.2015 20:54 1,5 C -0,6 C 84 % 1012,5 hPa 0,0 l/m 0 min 0 min 0 W/m 12,6 km/h (3 Bft)
18.01.2015 20:56 1,4 C 0,0 C 85 % 1012,5 hPa 0,0 l/m 0 min 0 min 0 W/m 10,5 km/h (2 Bft)
18.01.2015 20:58 1,4 C 0,0 C 85 % 1012,6 hPa 0,0 l/m 0 min 0 min 0 W/m 14,6 km/h (3 Bft)
18.01.2015 21:00 1,4 C 0,0 C 85 % 1012,5 hPa 0,0 l/m 0 min 0 min 0 W/m 14,6 km/h (3 Bft)
18.01.2015 21:02 1,4 C 0,0 C 85 % 1012,6 hPa 0,0 l/m 0 min 0 min 0 W/m 10,5 km/h (2 Bft)
18.01.2015 21:04 1,4 C 0,0 C 85 % 1012,6 hPa 0,0 l/m 0 min 0 min 0 W/m 8,4 km/h (2 Bft)
18.01.2015 21:06 1,4 C 0,0 C 85 % 1012,6 hPa 0,0 l/m 0 min 0 min 0 W/m 12,6 km/h (3 Bft)
18.01.2015 21:08 1,4 C 0,0 C 85 % 1012,6 hPa 0,0 l/m 0 min 0 min 0 W/m 16,7 km/h (3 Bft)
18.01.2015 21:10 1,4 C 0,0 C 85 % 1012,7 hPa 0,0 l/m 0 min 0 min 0 W/m 14,6 km/h (3 Bft)
18.01.2015 21:12 1,4 C 0,0 C 85 % 1012,7 hPa 0,0 l/m 0 min 0 min 0 W/m 10,5 km/h (2 Bft)
18.01.2015 21:14 1,3 C 0,0 C 85 % 1012,7 hPa 0,0 l/m 0 min 0 min 0 W/m 14,6 km/h (3 Bft)
18.01.2015 21:16 1,4 C 0,0 C 85 % 1012,7 hPa 0,0 l/m 0 min 0 min 0 W/m 10,5 km/h (2 Bft)
18.01.2015 21:18 1,4 C 0,0 C 85 % 1012,8 hPa 0,0 l/m 0 min 0 min 0 W/m 10,5 km/h (2 Bft)
18.01.2015 21:20 1,4 C 0,0 C 85 % 1012,7 hPa 0,0 l/m 0 min 0 min 0 W/m 14,6 km/h (3 Bft)
18.01.2015 21:22 1,4 C 0,0 C 85 % 1012,8 hPa 0,0 l/m 0 min 0 min 0 W/m 12,6 km/h (3 Bft)
18.01.2015 21:24 1,4 C 0,0 C 85 % 1012,7 hPa 0,0 l/m 0 min 0 min 0 W/m 10,5 km/h (2 Bft)
18.01.2015 21:26 1,4 C 0,6 C 85 % 1012,8 hPa 0,0 l/m 0 min 0 min 0 W/m 10,5 km/h (2 Bft)
18.01.2015 21:28 1,4 C 0,6 C 85 % 1012,7 hPa 0,0 l/m 0 min 0 min 0 W/m 14,6 km/h (3 Bft)
18.01.2015 21:30 1,4 C 0,6 C 85 % 1012,8 hPa 0,0 l/m 0 min 0 min 0 W/m 12,6 km/h (3 Bft)
18.01.2015 21:32 1,4 C 0,6 C 85 % 1012,8 hPa 0,0 l/m 0 min 0 min 0 W/m 12,6 km/h (3 Bft)
18.01.2015 21:34 1,4 C 0,6 C 85 % 1012,8 hPa 0,0 l/m 0 min 0 min 0 W/m 10,5 km/h (2 Bft)
18.01.2015 21:36 1,4 C 0,6 C 85 % 1012,7 hPa 0,0 l/m 0 min 0 min 0 W/m 10,5 km/h (2 Bft)
18.01.2015 21:38 1,4 C 0,0 C 85 % 1012,8 hPa 0,0 l/m 0 min 0 min 0 W/m 8,4 km/h (2 Bft)
18.01.2015 21:40 1,4 C 0,0 C 85 % 1012,8 hPa 0,0 l/m 0 min 0 min 0 W/m 10,5 km/h (2 Bft)
18.01.2015 21:42 1,4 C 0,0 C 85 % 1012,8 hPa 0,0 l/m 0 min 0 min 0 W/m 10,5 km/h (2 Bft)
18.01.2015 21:44 1,4 C 0,0 C 85 % 1012,7 hPa 0,0 l/m 0 min 0 min 0 W/m 10,5 km/h (2 Bft)
18.01.2015 21:46 1,4 C 0,0 C 85 % 1012,7 hPa 0,0 l/m 0 min 0 min 0 W/m 6,3 km/h (2 Bft)
18.01.2015 21:48 1,4 C 0,0 C 85 % 1012,7 hPa 0,0 l/m 0 min 0 min 0 W/m 10,5 km/h (2 Bft)
18.01.2015 21:50 1,4 C 0,0 C 85 % 1012,7 hPa 0,0 l/m 0 min 0 min 0 W/m 8,4 km/h (2 Bft)
18.01.2015 21:52 1,4 C 0,0 C 85 % 1012,7 hPa 0,0 l/m 0 min 0 min 0 W/m 10,5 km/h (2 Bft)
18.01.2015 21:54 1,4 C 0,0 C 85 % 1012,7 hPa 0,0 l/m 0 min 0 min 0 W/m 10,5 km/h (2 Bft)
18.01.2015 21:56 1,3 C 0,0 C 85 % 1012,7 hPa 0,0 l/m 0 min 0 min 0 W/m 6,3 km/h (2 Bft)
18.01.2015 21:58 1,3 C 0,0 C 85 % 1012,7 hPa 0,0 l/m 0 min 0 min 0 W/m 12,6 km/h (3 Bft)
18.01.2015 22:00 1,3 C 0,0 C 85 % 1012,7 hPa 0,0 l/m 0 min 0 min 0 W/m 8,4 km/h (2 Bft)
18.01.2015 22:02 1,3 C -0,6 C 85 % 1012,7 hPa 0,0 l/m 0 min 0 min 0 W/m 10,5 km/h (2 Bft)
18.01.2015 22:04 1,3 C -0,6 C 86 % 1012,7 hPa 0,0 l/m 0 min 0 min 0 W/m 10,5 km/h (2 Bft)
18.01.2015 22:06 1,2 C -0,6 C 86 % 1012,8 hPa 0,0 l/m 0 min 0 min 0 W/m 6,3 km/h (2 Bft)
18.01.2015 22:08 1,2 C -0,6 C 86 % 1012,7 hPa 0,0 l/m 0 min 0 min 0 W/m 8,4 km/h (2 Bft)
18.01.2015 22:10 1,2 C -0,6 C 85 % 1012,8 hPa 0,0 l/m 0 min 0 min 0 W/m 8,4 km/h (2 Bft)
18.01.2015 22:12 1,2 C -0,6 C 85 % 1012,7 hPa 0,0 l/m 0 min 0 min 0 W/m 6,3 km/h (2 Bft)
18.01.2015 22:14 1,1 C -0,6 C 85 % 1012,7 hPa 0,0 l/m 0 min 0 min 0 W/m 8,4 km/h (2 Bft)
18.01.2015 22:16 1,1 C -0,6 C 85 % 1012,8 hPa 0,0 l/m 0 min 0 min 0 W/m 8,4 km/h (2 Bft)
18.01.2015 22:18 1,1 C -0,6 C 85 % 1012,8 hPa 0,0 l/m 0 min 0 min 0 W/m 10,5 km/h (2 Bft)
18.01.2015 22:20 1,0 C -1,1 C 86 % 1012,8 hPa 0,0 l/m 0 min 0 min 0 W/m 6,3 km/h (2 Bft)
18.01.2015 22:22 1,0 C -1,1 C 86 % 1012,7 hPa 0,0 l/m 0 min 0 min 0 W/m 6,3 km/h (2 Bft)
18.01.2015 22:24 0,9 C -1,1 C 86 % 1012,8 hPa 0,0 l/m 0 min 0 min 0 W/m 8,4 km/h (2 Bft)
18.01.2015 22:26 0,9 C -1,1 C 86 % 1012,8 hPa 0,0 l/m 0 min 0 min 0 W/m 8,4 km/h (2 Bft)
18.01.2015 22:28 0,9 C -1,1 C 86 % 1012,7 hPa 0,0 l/m 0 min 0 min 0 W/m 10,5 km/h (2 Bft)
18.01.2015 22:30 0,9 C -1,1 C 86 % 1012,8 hPa 0,0 l/m 0 min 0 min 0 W/m 6,3 km/h (2 Bft)
18.01.2015 22:32 0,8 C -1,1 C 86 % 1012,8 hPa 0,0 l/m 0 min 0 min 0 W/m 6,3 km/h (2 Bft)
18.01.2015 22:34 0,8 C -1,1 C 86 % 1012,7 hPa 0,0 l/m 0 min 0 min 0 W/m 6,3 km/h (2 Bft)
18.01.2015 22:36 0,8 C -1,1 C 86 % 1012,6 hPa 0,0 l/m 0 min 0 min 0 W/m 8,4 km/h (2 Bft)
18.01.2015 22:38 0,7 C -1,1 C 86 % 1012,7 hPa 0,0 l/m 0 min 0 min 0 W/m 10,5 km/h (2 Bft)
18.01.2015 22:40 0,7 C -1,1 C 86 % 1012,8 hPa 0,0 l/m 0 min 0 min 0 W/m 8,4 km/h (2 Bft)
18.01.2015 22:42 0,7 C -1,1 C 86 % 1012,8 hPa 0,0 l/m 0 min 0 min 0 W/m 8,4 km/h (2 Bft)
18.01.2015 22:44 0,6 C -1,1 C 86 % 1012,8 hPa 0,0 l/m 0 min 0 min 0 W/m 12,6 km/h (3 Bft)
18.01.2015 22:46 0,6 C -1,1 C 86 % 1012,8 hPa 0,0 l/m 0 min 0 min 0 W/m 6,3 km/h (2 Bft)
18.01.2015 22:48 0,5 C -1,1 C 86 % 1012,8 hPa 0,0 l/m 0 min 0 min 0 W/m 10,5 km/h (2 Bft)
18.01.2015 22:50 0,5 C -1,1 C 86 % 1012,8 hPa 0,0 l/m 0 min 0 min 0 W/m 8,4 km/h (2 Bft)
18.01.2015 22:52 0,5 C -1,1 C 87 % 1012,8 hPa 0,0 l/m 0 min 0 min 0 W/m 10,5 km/h (2 Bft)
18.01.2015 22:54 0,5 C -1,1 C 87 % 1012,9 hPa 0,0 l/m 0 min 0 min 0 W/m 10,5 km/h (2 Bft)
18.01.2015 22:56 0,5 C -1,1 C 87 % 1012,9 hPa 0,0 l/m 0 min 0 min 0 W/m 8,4 km/h (2 Bft)
18.01.2015 22:58 0,5 C -1,1 C 87 % 1012,9 hPa 0,0 l/m 0 min 0 min 0 W/m 10,5 km/h (2 Bft)
18.01.2015 23:00 0,5 C -1,1 C 87 % 1012,9 hPa 0,0 l/m 0 min 0 min 0 W/m 12,6 km/h (3 Bft)
18.01.2015 23:02 0,5 C -1,1 C 87 % 1012,9 hPa 0,0 l/m 0 min 0 min 0 W/m 8,4 km/h (2 Bft)
18.01.2015 23:04 0,4 C -1,1 C 87 % 1012,8 hPa 0,0 l/m 0 min 0 min 0 W/m 10,5 km/h (2 Bft)
18.01.2015 23:06 0,4 C -1,1 C 87 % 1012,9 hPa 0,0 l/m 0 min 0 min 0 W/m 10,5 km/h (2 Bft)
18.01.2015 23:08 0,4 C -1,1 C 87 % 1012,9 hPa 0,0 l/m 0 min 0 min 0 W/m 14,6 km/h (3 Bft)
18.01.2015 23:10 0,4 C -1,1 C 87 % 1012,8 hPa 0,0 l/m 0 min 0 min 0 W/m 16,7 km/h (3 Bft)
18.01.2015 23:12 0,4 C -1,1 C 88 % 1012,8 hPa 0,0 l/m 0 min 0 min 0 W/m 10,5 km/h (2 Bft)
18.01.2015 23:14 0,4 C -1,1 C 88 % 1012,8 hPa 0,0 l/m 0 min 0 min 0 W/m 8,4 km/h (2 Bft)
18.01.2015 23:16 0,4 C -1,1 C 88 % 1012,8 hPa 0,0 l/m 0 min 0 min 0 W/m 14,6 km/h (3 Bft)
18.01.2015 23:18 0,4 C -1,1 C 88 % 1012,9 hPa 0,0 l/m 0 min 0 min 0 W/m 8,4 km/h (2 Bft)
18.01.2015 23:20 0,4 C -1,1 C 88 % 1012,9 hPa 0,0 l/m 0 min 0 min 0 W/m 8,4 km/h (2 Bft)
18.01.2015 23:22 0,3 C -1,1 C 88 % 1012,9 hPa 0,0 l/m 0 min 0 min 0 W/m 6,3 km/h (2 Bft)
18.01.2015 23:24 0,3 C -1,1 C 88 % 1013,0 hPa 0,0 l/m 0 min 0 min 0 W/m 6,3 km/h (2 Bft)
18.01.2015 23:26 0,3 C -1,1 C 88 % 1012,9 hPa 0,0 l/m 0 min 0 min 0 W/m 10,5 km/h (2 Bft)
18.01.2015 23:28 0,3 C -1,1 C 88 % 1012,9 hPa 0,0 l/m 0 min 0 min 0 W/m 10,5 km/h (2 Bft)
18.01.2015 23:30 0,3 C -1,1 C 88 % 1013,0 hPa 0,0 l/m 0 min 0 min 0 W/m 8,4 km/h (2 Bft)
18.01.2015 23:32 0,3 C -1,1 C 88 % 1012,9 hPa 0,0 l/m 0 min 0 min 0 W/m 10,5 km/h (2 Bft)
18.01.2015 23:34 0,3 C -1,1 C 88 % 1012,9 hPa 0,0 l/m 0 min 0 min 0 W/m 8,4 km/h (2 Bft)
18.01.2015 23:36 0,3 C -1,1 C 89 % 1012,9 hPa 0,0 l/m 0 min 0 min 0 W/m 6,3 km/h (2 Bft)
18.01.2015 23:38 0,2 C -1,1 C 88 % 1012,9 hPa 0,0 l/m 0 min 0 min 0 W/m 8,4 km/h (2 Bft)
18.01.2015 23:40 0,2 C -1,1 C 88 % 1012,9 hPa 0,0 l/m 0 min 0 min 0 W/m 8,4 km/h (2 Bft)
18.01.2015 23:42 0,2 C -1,1 C 89 % 1012,9 hPa 0,0 l/m 0 min 0 min 0 W/m 10,5 km/h (2 Bft)
18.01.2015 23:44 0,2 C -1,1 C 89 % 1013,0 hPa 0,0 l/m 0 min 0 min 0 W/m 14,6 km/h (3 Bft)
18.01.2015 23:46 0,2 C -1,1 C 89 % 1012,9 hPa 0,0 l/m 0 min 0 min 0 W/m 10,5 km/h (2 Bft)
18.01.2015 23:48 0,2 C -1,1 C 89 % 1013,0 hPa 0,0 l/m 0 min 0 min 0 W/m 10,5 km/h (2 Bft)
18.01.2015 23:50 0,2 C -1,1 C 89 % 1012,9 hPa 0,0 l/m 0 min 0 min 0 W/m 14,6 km/h (3 Bft)
18.01.2015 23:52 0,2 C -1,1 C 89 % 1012,9 hPa 0,0 l/m 0 min 0 min 0 W/m 10,5 km/h (2 Bft)
18.01.2015 23:54 0,2 C -1,1 C 89 % 1012,9 hPa 0,0 l/m 0 min 0 min 0 W/m 10,5 km/h (2 Bft)
18.01.2015 23:56 0,2 C -1,1 C 89 % 1012,9 hPa 0,0 l/m 0 min 0 min 0 W/m 12,6 km/h (3 Bft)
18.01.2015 23:58 0,2 C -1,1 C 89 % 1012,9 hPa 0,0 l/m 0 min 0 min 0 W/m 12,6 km/h (3 Bft)
_ Min-Zeit 23:58 22:20 15:50 17:14 - - - - 04:28
Minimum _ 0,0 C -1,1 C 74 % 1011,6 hPa - - - - 6,3 km/h (2 Bft)
_ Max-Zeit 14:36 12:16 23:36 00:02 00:00 12:16 00:00 13:44 09:48
Maximum _ 5,4 C 4,4 C 89 % 1015,5 hPa 0,0 l/m 2 min 0 min 228 W/m 27,2 km/h
S (4 Bft)
Durchschnitt _ 2,6 C 1,4 C 82 % 1013,1 hPa #0,0 l/m #1:44 h #0 min. 86 W/m 14,1 km/h (3 Bft)
© 2015 W. Hausmann